GFSGBSN_500_rhum_186.txt.gz
RH
74 66 61 65 38 49 57 64 64 69 69 79 73 74 74 61 65 55 41 46 49 67 66 66 67 56 55 63 86 48 50 47 47 45 45 44 44 38 35 32 34 30 29 27 26 26 21
38 43 43 56 78 72 77 83 86 74 83 87 88 78 77 70 59 53 45 52 61 75 57 52 62 55 48 56 77 53 52 52 44 48 55 53 49 42 39 36 33 32 27 26 26 24 21
57 51 42 69 76 74 78 84 85 91 88 84 87 86 79 78 78 58 60 66 75 75 55 46 46 44 35 61 61 59 55 50 43 45 54 55 52 40 43 42 38 37 32 31 29 27 23
90 93 96 96 87 82 93 88 85 85 84 91 92 90 90 88 86 77 69 78 76 67 58 47 42 34 21 60 54 65 44 56 39 42 47 44 34 29 31 44 42 39 37 34 35 37 31
91 92 90 89 93 90 88 77 72 76 78 81 85 91 92 84 83 86 80 86 81 77 61 52 43 37 26 39 64 51 52 50 46 42 43 44 36 36 33 30 31 36 32 39 46 47 44
98 99 99 98 96 98 95 87 78 72 79 83 78 74 86 94 89 91 90 88 81 76 73 66 55 43 31 34 45 68 54 58 59 54 48 50 46 39 37 37 28 44 38 33 36 53 45
96 98 99 100 92 91 84 78 82 82 83 81 81 75 67 75 92 96 94 98 92 86 82 63 58 46 38 36 34 59 66 66 58 57 52 65 51 33 44 41 38 38 37 34 40 58 55
100 92 93 91 86 87 84 85 85 79 82 88 93 91 80 76 74 78 84 78 94 95 71 57 60 47 50 46 28 42 79 67 61 54 66 56 37 52 50 46 45 42 39 35 42 55 64
88 83 84 80 72 66 76 86 90 86 92 90 93 89 91 86 86 88 91 92 94 94 82 41 46 46 45 49 40 44 67 68 65 57 58 59 41 53 47 48 49 42 38 40 46 62 65
85 93 96 93 86 73 77 95 96 100 96 94 94 96 84 87 86 85 85 89 90 93 95 54 48 39 43 45 48 55 61 61 58 58 62 54 46 54 54 41 46 37 54 50 49 57 46
90 90 84 99 100 93 90 100 89 97 100 95 95 96 95 93 85 87 86 82 80 91 98 59 44 40 36 32 38 39 45 47 46 48 48 44 46 50 53 44 52 44 60 64 54 46 50
95 94 89 83 92 100 90 90 94 91 85 91 91 95 96 97 95 94 92 96 98 100 91 70 58 51 45 39 48 46 40 46 46 43 44 43 46 42 41 49 48 60 66 75 70 58 57
94 91 92 95 96 95 95 93 93 93 92 90 88 93 90 86 89 95 97 100 100 96 78 68 69 67 59 52 55 64 72 62 59 51 48 45 41 52 56 51 54 74 76 77 69 60 46
94 98 100 99 90 88 86 100 99 98 97 99 95 100 94 86 96 90 93 100 100 94 76 78 83 85 66 57 56 72 69 45 43 63 64 63 51 54 54 46 80 84 100 93 91 84 60
100 100 100 98 98 90 95 100 100 100 99 100 100 100 99 94 100 100 100 100 90 96 96 96 95 98 82 66 75 78 83 64 56 66 71 68 61 59 62 74 87 73 87 61 100 97 98
80 82 85 79 74 94 98 100 98 100 100 100 100 100 97 100 100 100 100 100 100 90 96 100 99 100 97 90 94 95 91 73 61 64 100 100 91 68 76 80 76 80 79 80 85 95 97
13 13 14 16 17 25 35 51 100 100 100 100 100 100 92 100 100 100 100 99 100 100 100 100 100 100 86 95 100 100 100 82 76 76 97 100 100 67 90 84 85 91 90 85 82 97 92
11 11 11 11 11 12 12 14 18 19 33 100 100 100 98 93 100 98 100 100 100 100 100 100 100 100 100 100 100 100 100 100 100 97 80 99 100 79 80 96 94 82 93 100 98 82 83
10 7 7 6 6 6 7 8 12 17 25 16 75 100 100 100 92 76 82 90 98 100 100 100 100 100 100 100 100 100 100 100 100 100 100 87 98 98 100 88 90 92 82 91 90 89 97
10 10 10 9 8 7 7 7 6 6 20 44 19 80 100 100 98 100 100 75 66 84 89 100 100 100 100 100 100 97 99 98 100 100 100 93 99 99 99 100 100 99 100 74 100 100 98
14 14 14 15 15 16 15 14 13 8 14 58 24 89 99 100 98 93 100 84 92 97 100 94 100 100 100 100 100 100 100 99 100 92 100 100 100 100 100 85 85 86 83 55 76 84 100
12 12 12 13 15 18 22 21 19 21 14 68 49 64 100 100 100 100 100 99 100 100 100 100 100 100 100 98 100 96 100 100 100 100 99 90 100 100 99 100 85 100 97 91 90 100 100
9 15 24 37 55 66 56 31 25 26 21 86 72 100 99 93 100 100 100 100 100 100 95 96 98 96 82 64 57 74 93 96 99 100 100 100 100 100 99 84 100 100 75 100 100 100 100
45 50 54 48 79 95 92 100 69 34 55 100 97 100 100 100 100 100 100 100 100 100 82 74 70 63 58 59 52 47 79 91 95 97 100 100 100 100 100 100 100 85 80 88 96 91 97
53 61 67 46 97 99 100 100 89 100 100 100 100 100 100 100 100 100 99 100 100 91 76 78 71 64 65 66 100 100 100 97 87 91 100 100 100 100 99 99 99 72 54 52 53 70 100
90 99 76 80 100 93 100 90 81 100 100 100 100 100 100 100 100 100 100 100 97 78 70 54 48 59 58 70 65 91 92 100 93 58 92 100 100 100 100 100 100 87 100 98 88 67 70
100 100 72 99 100 74 97 51 100 100 100 100 100 100 100 100 100 100 100 93 80 65 58 63 61 83 90 100 100 93 79 77 92 100 86 78 96 100 100 100 100 76 80 95 87 68 81
45 98 99 100 100 81 63 93 92 100 100 99 100 100 100 100 100 100 88 75 86 80 76 86 100 100 100 100 100 100 98 100 96 100 68 69 85 93 100 100 100 100 96 100 100 97 76
94 100 86 84 100 83 84 97 100 100 100 100 97 100 100 100 100 99 93 100 93 97 100 100 100 98 100 100 94 99 100 100 100 100 96 81 99 100 100 100 100 100 99 94 96 89 100

GFSGBSN_500_rhum_189.txt.gz
RH
66 79 83 80 57 85 75 74 66 64 60 41 47 54 56 66 62 85 92 82 73 78 72 53 54 57 54 44 97 70 50 46 57 58 51 44 45 38 39 37 34 31 31 28 26 28 28
95 97 80 39 34 42 50 57 72 58 62 77 68 73 85 78 86 91 90 81 76 72 60 54 53 49 46 34 94 78 65 60 53 52 56 43 39 34 34 40 36 36 33 33 31 28 26
95 95 95 70 62 53 50 48 74 48 68 91 82 84 92 91 90 85 86 85 82 73 61 56 54 38 34 41 57 62 52 59 50 57 59 44 36 31 35 39 33 35 31 36 36 34 32
96 96 97 96 96 95 96 86 90 91 86 95 89 97 91 79 84 89 82 78 79 72 61 58 56 39 24 43 62 61 52 54 49 51 54 49 40 34 31 33 30 29 26 26 39 44 41
99 99 94 91 88 93 97 95 93 96 94 93 94 92 88 85 78 80 79 75 66 70 64 59 55 50 19 35 58 66 61 59 52 50 49 52 45 39 31 32 32 32 28 30 32 46 39
94 91 91 90 92 85 88 93 100 97 92 88 90 86 80 76 82 77 80 81 72 56 67 63 51 52 36 51 58 58 61 72 66 53 47 53 46 31 30 45 33 44 32 26 26 41 39
98 94 96 93 90 88 87 92 91 98 99 95 90 85 80 81 72 78 65 70 76 74 62 56 48 40 49 59 65 63 65 66 55 64 58 66 43 30 43 48 45 46 39 36 37 39 40
95 97 93 94 94 97 93 94 94 88 94 80 72 74 80 83 83 85 76 65 72 79 54 50 48 36 49 70 49 57 65 61 59 50 69 62 37 52 58 57 57 52 40 36 42 46 47
98 99 94 90 92 94 99 99 94 88 88 85 74 72 72 76 82 74 85 94 98 97 78 33 42 42 47 52 48 53 65 65 56 50 69 72 31 65 60 58 54 52 53 55 53 51 44
91 96 92 94 80 87 94 96 93 82 81 83 79 81 80 72 70 79 94 100 100 99 95 36 35 36 45 52 44 51 56 63 61 56 81 76 38 63 61 47 50 43 46 55 55 53 40
78 85 96 97 98 95 90 96 98 96 84 87 88 84 80 72 69 69 88 95 100 100 99 56 39 35 37 41 45 45 46 52 55 52 57 54 63 62 56 42 55 41 42 47 52 52 46
86 97 94 94 97 97 95 96 97 97 97 94 89 92 95 96 79 80 82 92 100 100 94 74 52 43 43 48 51 47 43 46 50 51 42 33 41 38 40 49 52 56 55 54 54 50 50
72 78 91 96 96 96 96 96 96 94 95 98 99 95 95 95 88 82 99 100 100 98 85 80 70 62 58 54 54 56 53 50 49 58 49 49 44 63 58 51 52 54 57 65 62 55 56
100 99 97 100 100 100 100 97 100 98 99 99 98 100 98 91 95 83 99 100 100 91 81 99 90 88 80 71 60 63 65 55 54 57 65 56 44 53 51 48 67 72 94 79 64 68 58
100 100 100 100 100 100 99 99 96 90 99 100 99 98 99 98 100 100 100 100 95 92 99 79 80 91 89 76 77 77 76 72 73 78 77 71 58 53 52 82 83 71 82 62 100 97 93
31 27 40 45 44 38 51 70 79 88 98 100 99 100 97 98 100 100 100 98 98 96 100 100 99 98 98 89 100 100 99 95 92 84 92 94 97 74 72 82 65 73 82 90 98 98 100
13 14 14 13 12 11 11 11 11 12 14 19 95 97 87 100 100 100 100 100 100 100 100 100 100 100 100 100 90 90 97 99 100 98 98 93 98 86 100 75 59 96 99 82 88 96 91
17 16 16 14 12 12 11 11 11 11 12 11 12 24 73 97 99 98 100 99 100 100 100 100 100 100 100 100 100 100 95 100 94 100 91 97 100 98 85 78 95 100 100 100 99 84 95
18 15 14 14 13 12 10 9 8 7 6 6 8 11 18 20 91 90 81 67 71 74 80 98 100 100 100 100 100 100 100 100 100 99 100 85 100 94 98 98 99 100 93 98 100 100 96
16 17 15 13 12 12 11 11 11 10 10 8 7 6 7 27 35 58 88 99 89 92 89 81 79 90 100 100 100 96 99 95 100 100 100 100 100 100 99 100 100 100 100 100 92 99 75
13 12 12 12 12 12 13 14 16 16 17 15 12 9 7 8 31 34 100 100 100 100 100 100 96 80 65 77 98 100 100 97 98 98 100 100 100 93 99 100 100 100 99 98 97 99 100
15 14 12 11 10 8 8 9 11 16 22 24 21 14 12 12 26 38 84 100 100 100 100 100 100 98 93 87 100 98 97 92 93 99 100 100 94 100 100 91 100 100 99 100 91 97 88
12 8 8 9 14 17 22 22 34 40 42 36 43 30 24 72 88 100 100 100 100 100 100 100 100 100 100 93 84 72 84 74 57 80 98 100 100 100 98 92 100 99 92 100 97 99 100
9 14 21 27 34 38 42 51 85 97 94 94 88 96 39 89 100 94 94 100 100 97 97 100 100 100 100 98 93 90 90 84 75 43 41 77 100 100 100 100 100 100 99 94 100 100 96
14 24 32 38 45 59 64 86 100 100 100 100 99 96 100 100 100 98 100 100 100 99 96 92 88 87 89 87 51 31 27 36 48 51 52 45 42 87 100 100 99 100 96 100 100 100 97
84 100 88 100 100 94 59 92 97 98 100 92 100 100 100 100 100 94 90 88 85 76 68 64 77 58 42 50 55 61 68 52 70 64 64 88 56 54 100 100 100 96 98 100 100 100 99
100 100 100 100 100 57 100 96 81 100 100 100 97 100 100 90 100 97 89 98 97 89 80 64 65 76 77 77 86 63 100 100 82 60 94 100 100 90 98 100 100 100 94 98 98 97 94
95 72 98 100 91 91 100 85 98 92 89 76 100 100 100 100 93 93 100 100 98 90 94 71 64 95 94 83 99 92 83 68 94 97 63 87 100 99 89 94 98 95 96 98 98 92 93
83 99 100 100 79 70 74 72 65 86 91 100 82 75 100 100 92 99 100 98 86 99 100 99 100 100 100 89 97 90 96 100 100 97 63 99 100 99 100 100 100 99 76 71 98 100 96

GFSGBSN_500_rhum_195.txt.gz
RH
92 95 87 95 94 92 95 86 85 85 62 46 38 31 63 80 83 79 88 66 69 62 61 58 59 54 46 47 57 86 67 61 53 49 50 57 56 52 46 53 61 55 48 41 39 39 35
77 81 84 93 94 90 87 77 74 89 81 86 68 85 85 80 65 47 57 84 67 64 73 62 64 60 48 37 72 77 61 56 50 50 51 52 51 55 43 45 43 46 39 40 43 42 38
81 77 80 85 86 83 85 79 75 72 74 81 85 85 82 64 51 51 52 55 54 58 71 72 68 60 43 36 71 75 70 64 55 50 53 54 44 38 44 40 46 43 36 35 35 40 38
84 88 84 82 86 86 84 82 82 78 76 83 90 92 92 85 87 86 84 79 77 81 76 73 76 58 31 28 71 71 56 64 58 56 53 59 54 38 38 43 39 39 42 34 38 36 37
98 88 90 94 94 92 86 83 83 79 79 84 89 93 97 98 95 96 88 81 80 78 82 78 66 61 26 26 60 56 54 58 60 60 56 60 56 49 40 33 36 40 36 39 41 37 34
94 84 72 76 83 86 97 88 91 88 89 78 85 88 92 95 94 97 96 90 82 83 84 73 64 62 37 35 41 45 44 48 60 65 66 60 56 49 44 39 28 48 40 39 43 56 44
96 85 96 77 80 97 91 98 85 86 96 87 72 82 87 90 93 94 88 87 87 96 78 76 64 52 55 49 44 44 42 54 57 51 57 59 48 38 47 51 54 53 48 36 43 100 85
96 96 81 80 74 98 99 96 97 95 96 91 78 78 78 91 85 90 87 90 98 96 66 64 65 52 48 66 36 38 43 44 55 56 71 71 31 43 45 42 41 46 47 30 43 57 70
99 97 98 97 98 95 96 96 94 97 95 98 90 98 99 98 99 98 97 91 100 99 92 55 57 48 65 63 37 39 62 59 52 50 62 69 24 58 57 48 40 39 36 40 45 75 83
100 96 98 96 95 96 96 91 84 98 97 94 99 99 95 96 89 95 95 98 100 100 97 42 49 44 46 56 44 47 56 66 58 43 69 59 30 61 62 51 53 56 35 50 60 60 71
97 99 99 98 97 98 98 97 95 98 97 96 98 100 95 91 87 80 86 86 94 100 97 50 45 43 48 45 51 46 49 56 52 56 79 35 46 53 55 44 70 55 46 70 64 77 74
97 97 98 99 97 97 100 97 98 97 96 93 95 95 100 100 97 87 97 97 100 99 94 68 62 55 58 49 53 69 57 53 53 63 73 41 56 54 47 47 52 55 44 69 96 88 99
99 96 97 97 98 97 96 98 97 98 98 99 96 95 97 96 97 97 92 93 100 98 84 72 72 71 62 58 51 54 68 69 63 60 56 59 49 56 69 58 54 58 64 78 97 86 56
99 98 99 98 97 98 96 96 96 98 98 99 97 98 100 92 98 100 99 100 99 91 90 97 84 72 73 59 64 68 76 84 70 80 79 88 75 52 51 68 53 76 74 97 85 71 74
96 97 98 100 100 98 98 98 99 96 98 98 97 94 90 100 100 100 100 100 93 93 97 96 93 90 81 73 91 94 89 92 92 95 100 92 86 57 80 73 78 62 84 53 92 89 100
50 50 26 24 64 86 95 98 94 96 94 97 97 98 100 100 99 100 100 99 99 94 100 100 100 100 100 93 78 90 98 92 100 98 100 100 98 75 71 100 97 72 56 90 93 99 85
13 14 16 21 25 31 48 59 66 56 60 47 46 57 40 39 61 83 83 86 89 100 100 100 100 100 100 100 98 100 100 100 100 100 100 100 93 74 75 97 96 85 80 97 89 100 92
24 24 25 23 20 18 17 16 16 17 17 18 17 15 14 14 13 12 11 10 10 10 64 100 100 100 100 100 100 100 99 100 100 100 100 100 100 90 67 91 93 90 98 95 97 98 98
33 31 30 28 28 27 26 24 22 22 22 20 16 14 13 14 11 11 11 10 10 10 12 19 21 44 89 100 100 100 100 99 100 97 100 100 100 91 82 70 99 84 96 93 98 100 90
33 31 27 23 21 20 19 18 18 17 17 16 17 17 17 16 15 14 14 13 11 10 11 32 27 46 50 40 53 69 95 100 94 100 100 100 100 100 100 99 100 100 96 69 94 100 98
19 21 23 24 24 23 23 22 21 19 18 16 17 18 16 16 15 14 13 13 12 11 20 21 46 69 80 72 64 58 46 78 47 64 81 89 94 94 100 97 97 96 89 68 87 100 100
30 30 29 28 27 26 24 21 20 18 15 16 17 17 15 14 13 15 69 27 18 15 33 39 64 74 77 80 78 79 83 73 50 77 65 66 43 54 71 80 86 92 84 81 86 81 76
26 20 16 14 12 12 11 10 9 9 12 15 12 11 23 21 35 53 50 49 60 70 68 67 92 100 97 93 100 99 90 93 68 75 78 76 61 44 41 39 46 60 60 71 81 95 98
10 10 11 11 11 10 10 10 13 22 33 62 55 46 48 20 39 83 100 96 84 85 78 72 95 96 100 100 100 99 87 87 86 76 81 72 67 60 46 37 34 11 28 54 55 66 89
11 12 12 12 14 16 24 64 90 98 100 81 77 78 78 67 93 96 99 100 100 100 99 100 100 100 100 100 100 97 93 92 78 72 76 72 55 57 41 29 16 10 23 79 90 55 71
35 34 45 56 98 100 100 100 100 100 100 100 78 85 99 90 82 100 97 100 100 98 69 74 88 98 99 93 98 84 61 49 96 97 100 98 100 100 86 42 22 80 55 54 55 46 72
58 62 54 56 99 100 95 94 95 100 100 94 88 100 100 95 83 92 99 100 90 75 93 86 80 76 78 77 69 70 77 87 99 100 100 96 95 100 100 95 86 87 68 81 100 97 100
62 88 91 86 94 86 86 89 90 92 91 100 100 99 83 78 93 98 100 81 100 84 88 96 96 86 100 94 96 100 100 100 100 100 100 100 100 100 100 100 100 100 63 74 72 99 100
60 62 85 84 73 85 80 84 85 89 100 100 99 90 80 90 99 100 100 76 67 81 99 100 92 100 100 100 100 100 100 99 100 100 100 100 98 98 100 99 99 100 100 82 62 64 88

GFSGBSN_500_rhum_198.txt.gz
RH
76 78 80 79 80 94 86 78 83 86 95 94 91 89 81 80 80 44 43 43 46 68 74 69 63 64 62 51 54 70 64 70 74 66 55 52 54 53 45 48 52 46 54 57 54 51 44
69 67 64 68 70 79 86 84 86 83 86 86 85 75 71 76 78 85 71 70 72 64 56 53 58 62 51 37 55 68 77 74 69 64 66 62 52 47 37 44 47 52 43 39 42 42 46
69 68 71 72 72 74 79 78 81 86 87 90 84 78 79 77 83 87 84 82 74 65 61 63 66 53 36 32 52 77 92 72 64 62 60 69 58 45 41 40 45 40 33 35 34 44 37
77 73 74 79 82 78 79 83 88 83 76 81 81 80 79 80 78 86 88 84 78 77 78 74 68 58 31 30 58 80 89 71 64 65 58 60 58 48 46 42 39 39 33 28 42 41 40
88 97 85 96 97 86 79 91 96 96 90 87 83 81 80 82 80 85 82 83 81 84 80 73 65 62 29 34 59 62 71 64 63 68 64 60 52 48 47 44 39 49 38 42 37 46 41
83 93 90 98 92 96 97 96 88 77 77 72 75 92 90 91 85 87 83 82 84 83 77 70 58 59 41 45 56 64 67 64 66 60 64 70 57 42 40 55 34 51 44 43 37 54 56
62 96 97 97 98 95 99 97 96 88 86 72 88 94 99 100 99 98 87 81 77 88 70 60 56 45 51 57 54 48 58 69 69 60 58 70 52 31 39 47 49 50 44 34 40 51 95
50 70 95 96 88 94 97 98 96 98 83 79 88 98 98 98 98 98 92 85 97 82 58 50 54 39 42 68 44 46 55 59 65 63 61 60 29 41 48 47 44 35 34 29 33 45 74
47 48 83 98 99 93 96 98 96 96 96 90 89 94 98 97 98 93 93 89 100 100 88 41 47 36 56 67 44 48 70 71 58 57 75 69 26 56 58 50 41 39 37 35 36 59 74
47 50 50 61 77 90 97 95 97 96 97 97 96 95 98 99 99 93 94 90 100 100 97 36 40 35 46 64 30 51 58 73 59 53 70 70 40 56 66 49 55 48 45 50 59 53 82
76 60 84 82 88 98 99 98 96 96 97 98 95 98 96 98 97 97 98 98 100 100 98 55 42 47 51 45 46 44 55 64 54 75 83 42 47 59 58 44 69 66 55 55 54 72 99
59 96 99 99 97 92 96 98 99 99 97 97 97 97 98 98 97 99 98 98 98 99 96 69 57 67 68 62 51 51 53 56 64 65 72 58 54 67 51 56 54 57 54 61 62 60 79
96 91 95 96 98 100 85 96 95 97 97 98 99 96 96 98 97 98 98 99 100 98 93 72 72 84 80 67 54 58 60 62 60 80 53 74 53 57 64 66 64 61 62 76 72 73 54
94 99 100 100 100 98 98 99 96 95 96 97 96 98 97 99 98 97 98 100 99 88 96 99 87 83 79 85 89 69 66 71 78 99 96 98 81 50 52 86 70 74 86 96 87 79 69
61 74 98 99 99 100 98 100 100 99 98 98 99 95 94 100 98 100 98 100 96 93 99 100 87 100 90 100 100 79 83 85 100 96 100 100 98 60 74 84 98 74 100 65 100 92 100
7 10 14 16 16 45 89 95 98 98 98 97 96 97 99 99 97 100 100 91 87 99 100 100 99 99 95 96 98 99 86 89 86 79 83 99 94 77 76 83 90 98 78 98 95 99 91
10 12 14 13 12 13 15 18 24 28 38 44 70 84 96 99 96 93 94 98 100 100 100 99 100 100 99 100 100 100 100 100 96 74 88 98 98 87 80 94 98 98 84 88 97 100 96
10 17 22 25 24 24 23 23 23 21 18 17 16 15 16 17 18 20 22 23 22 24 17 29 42 84 100 100 100 100 100 100 99 100 100 99 98 100 97 86 97 99 89 100 98 100 69
21 29 35 36 37 36 35 33 31 29 26 26 23 22 20 21 18 18 18 16 15 13 12 11 10 11 17 59 100 100 100 100 100 99 100 98 100 96 100 100 100 99 100 99 99 98 95
23 37 41 39 39 39 35 36 34 32 28 26 26 22 20 20 18 16 15 14 15 15 14 13 12 20 22 11 20 46 82 95 93 90 100 100 99 100 98 100 99 97 100 100 100 62 73
15 15 16 16 17 17 18 18 18 18 18 19 18 17 17 18 17 17 17 17 17 16 15 14 30 46 60 68 60 33 12 14 19 26 47 81 86 93 96 86 100 98 94 88 96 91 85
85 76 67 53 40 35 33 31 26 23 23 24 27 26 21 21 20 18 46 36 34 29 31 18 16 21 87 86 98 79 62 46 65 97 75 24 26 30 24 52 61 62 83 96 84 89 97
15 14 15 18 22 28 25 20 17 15 15 16 17 16 17 22 21 22 25 31 86 100 99 61 68 48 41 48 62 84 88 91 96 83 94 95 68 46 24 13 14 14 29 19 43 69 49
9 8 9 9 10 11 11 13 14 16 18 32 21 32 50 25 83 72 72 100 100 99 83 88 98 100 100 93 100 98 99 100 90 87 93 83 84 79 58 27 40 8 17 22 28 13 12
10 15 18 25 22 17 22 36 40 61 82 96 99 100 100 93 100 100 100 85 98 75 98 100 100 99 100 96 100 100 100 100 96 100 100 78 54 63 74 48 41 20 25 14 14 10 19
31 40 58 51 22 28 89 100 100 100 100 100 100 100 100 99 84 93 97 100 98 89 100 100 100 99 100 100 87 98 92 100 97 99 97 97 86 96 70 84 76 75 49 36 30 11 27
47 49 61 88 94 99 97 93 98 100 100 100 98 100 100 89 98 100 100 100 100 100 100 88 81 96 76 59 60 54 63 44 36 35 39 97 100 86 100 100 100 93 70 98 100 36 46
62 45 67 93 77 82 89 100 95 95 85 100 97 100 100 74 97 83 100 100 100 98 95 98 98 90 63 78 85 87 81 92 93 100 100 100 100 100 100 100 100 100 100 90 83 73 73
57 56 63 98 99 86 83 97 97 93 100 90 90 99 89 92 96 79 85 100 100 100 100 100 100 82 100 93 100 100 100 100 100 100 100 100 98 95 100 100 99 100 97 99 78 67 48

GFSGBSN_500_rhum_201.txt.gz
RH
61 69 79 88 94 85 72 77 80 80 69 72 92 90 90 82 87 89 85 86 80 67 68 70 65 61 52 47 47 70 62 74 75 70 68 63 62 69 53 48 46 40 44 46 42 43 49
67 68 67 69 81 86 75 70 66 63 68 75 77 80 85 88 89 89 85 82 76 69 72 69 73 64 47 35 43 51 56 57 70 71 75 83 65 61 50 49 43 46 39 41 42 44 38
81 78 77 77 73 72 71 69 70 70 71 71 72 76 84 90 90 86 84 82 78 74 75 75 76 62 42 35 45 65 81 64 77 72 72 90 71 59 56 49 49 46 33 35 43 45 39
92 75 71 75 87 77 74 76 75 74 74 76 77 76 84 89 89 87 87 82 76 73 69 70 65 59 33 32 53 60 71 68 72 75 74 82 70 58 56 48 38 42 38 28 47 52 50
82 68 65 73 86 92 88 85 92 87 79 84 99 92 85 84 89 93 89 78 79 83 69 65 58 58 28 31 58 56 55 58 64 72 72 81 73 64 52 44 38 36 31 33 39 63 57
87 70 75 76 74 64 62 71 98 85 97 97 94 95 97 91 95 92 77 76 86 81 76 66 58 60 38 51 52 55 56 54 60 58 59 75 77 67 52 52 41 46 34 29 30 52 51
67 79 67 78 72 63 59 66 99 97 97 97 98 94 96 97 97 98 82 89 76 88 75 69 64 51 55 60 47 45 51 59 61 61 58 68 57 44 63 59 54 46 36 25 29 45 52
78 66 63 66 75 74 67 65 55 80 95 96 92 93 90 95 96 98 97 74 96 95 76 64 69 49 57 71 43 44 58 52 56 48 61 62 30 49 66 57 48 42 36 26 30 43 58
80 86 91 85 78 75 82 70 89 79 48 90 96 94 89 95 98 97 97 96 100 99 95 50 54 47 56 60 47 42 72 67 56 63 70 51 34 65 64 53 43 46 39 35 33 46 50
82 79 82 82 79 71 87 70 65 59 55 51 62 89 94 89 97 97 97 96 99 100 97 56 46 38 47 70 37 59 60 57 51 49 74 52 43 53 60 43 54 50 50 60 46 46 45
46 46 44 47 48 47 45 47 54 62 55 71 66 95 100 100 96 94 98 96 97 100 97 69 48 50 56 57 61 56 65 69 51 71 89 30 54 58 60 43 77 49 64 60 62 59 64
56 54 48 45 47 47 44 41 47 54 60 66 96 88 92 94 99 100 97 98 98 99 97 84 62 59 68 58 64 70 69 66 67 74 87 55 64 58 46 51 62 62 54 68 67 65 92
76 80 78 70 82 81 88 94 86 87 100 90 95 97 99 87 96 97 99 100 99 98 91 89 93 93 75 63 59 60 67 64 63 73 74 79 52 52 56 59 50 60 82 77 87 80 60
23 32 49 72 79 93 100 100 100 100 98 99 98 100 97 99 99 98 99 100 98 89 95 100 91 94 95 99 95 82 83 88 96 96 94 100 68 59 82 94 73 81 92 100 93 89 73
11 11 11 10 11 31 51 73 89 99 100 100 98 98 100 100 100 100 98 99 96 98 97 97 100 99 96 99 96 100 93 80 89 89 100 97 93 81 74 86 98 64 96 64 100 94 100
18 13 11 10 9 8 8 8 11 15 27 55 84 97 100 100 96 98 100 95 96 100 100 99 98 100 98 99 100 98 99 97 93 100 88 88 99 93 68 84 100 98 80 94 82 99 99
37 29 18 10 8 10 12 14 13 12 11 13 13 12 21 28 65 93 97 100 99 100 100 99 100 100 99 98 100 100 98 97 100 100 100 94 80 75 72 97 94 68 89 95 71 99 98
48 39 31 22 11 8 18 25 28 27 28 27 22 17 18 21 23 30 39 61 94 99 100 100 99 100 100 100 100 100 99 97 100 100 100 100 100 95 69 59 52 80 100 99 84 100 100
40 32 23 18 14 19 27 40 46 46 42 37 30 28 25 22 18 17 16 16 16 17 17 18 18 19 16 15 16 25 81 100 100 100 100 100 100 99 94 88 92 98 100 100 100 97 96
34 29 24 17 15 17 30 38 41 38 35 35 38 34 32 30 29 28 26 25 23 22 21 20 18 16 15 14 16 12 11 12 28 87 100 100 99 100 98 98 97 94 100 100 100 99 100
84 89 88 72 43 27 21 18 17 17 19 21 24 24 24 25 21 19 19 18 17 16 18 17 16 15 21 27 23 19 21 18 14 13 31 73 85 85 87 94 96 95 100 100 94 98 97
19 17 21 24 27 46 74 67 52 32 24 26 24 24 22 22 21 21 21 23 26 31 39 32 35 34 27 32 60 38 44 51 32 72 68 82 38 39 23 25 24 24 26 53 38 89 92
11 9 9 9 9 10 12 13 16 24 29 36 26 22 20 22 22 24 26 27 24 26 52 48 67 65 66 58 34 23 32 50 65 78 96 100 100 100 87 56 57 15 14 21 27 24 25
13 14 15 18 24 22 17 23 24 34 60 44 29 31 33 24 33 32 58 100 82 81 47 48 88 100 100 100 100 91 60 27 28 84 100 98 100 100 95 83 67 18 24 26 18 16 27
28 33 30 33 38 67 55 23 39 88 99 100 97 99 98 52 84 85 99 100 100 94 95 71 90 100 98 100 100 100 100 95 97 96 100 100 100 100 100 82 68 35 30 29 28 17 29
35 42 39 50 68 82 95 83 73 88 100 100 100 100 100 100 94 100 100 100 87 96 96 79 100 100 100 100 100 96 93 94 95 99 100 100 98 100 100 78 68 53 49 66 81 30 34
46 47 42 92 78 77 95 99 100 100 100 100 100 100 100 100 100 100 99 95 98 99 89 81 99 100 100 96 89 81 77 80 55 51 78 94 92 82 88 78 74 66 92 64 86 93 78
40 36 39 80 76 72 70 90 88 100 100 98 100 100 100 92 100 95 98 99 100 100 100 100 99 99 94 100 98 79 57 72 84 98 81 65 72 71 94 96 100 88 100 100 94 99 81
28 24 34 44 46 51 82 90 97 97 93 84 96 100 96 81 99 92 82 99 100 100 100 100 100 99 88 99 95 88 92 99 100 100 100 100 99 99 100 98 100 93 88 100 100 94 82

GFSGBSN_500_rhum_207.txt.gz
RH
97 94 90 85 78 72 72 79 82 82 78 87 78 74 72 75 78 79 85 90 83 76 71 77 76 70 61 50 50 95 78 83 87 90 81 75 71 70 57 49 48 50 58 50 48 52 48
93 97 100 95 79 63 56 50 47 47 54 55 59 64 70 73 76 92 91 83 77 72 74 77 77 71 58 34 48 89 94 88 91 64 67 84 82 70 47 56 50 49 48 50 51 59 47
95 95 89 94 85 74 73 64 53 44 47 58 61 66 64 66 68 76 86 81 76 75 75 78 75 72 50 34 41 72 84 93 91 76 70 100 74 62 60 50 52 44 41 51 62 71 52
96 93 97 90 83 88 98 90 91 67 58 61 64 74 72 80 73 77 81 79 80 74 78 82 80 68 36 40 46 76 93 60 82 82 70 93 82 61 60 56 48 42 33 40 48 76 63
94 95 94 97 97 98 92 86 86 91 85 82 80 76 81 83 71 70 83 97 90 77 95 93 81 77 37 32 47 79 83 78 68 77 78 78 74 63 57 55 48 39 38 40 53 73 70
96 98 94 94 89 98 88 81 74 79 98 95 90 89 84 83 75 68 81 95 96 82 85 91 81 73 41 44 56 65 82 80 75 78 79 80 70 55 52 52 33 48 37 36 37 59 52
92 97 98 94 84 95 84 73 69 70 92 88 86 92 85 80 79 80 73 81 76 66 73 99 89 69 66 76 62 54 52 54 68 64 78 80 63 41 50 51 46 40 29 24 33 46 55
69 68 81 85 67 74 70 59 71 65 59 60 80 70 75 80 84 89 91 71 70 74 62 67 96 65 87 91 71 65 63 55 73 60 65 75 38 56 59 55 52 42 32 27 33 42 57
65 64 60 61 55 70 61 59 62 63 66 63 67 71 76 64 65 82 99 93 83 83 99 59 54 56 68 66 52 55 70 80 70 74 74 66 34 73 70 58 57 49 38 43 49 69 56
66 65 58 55 56 55 58 60 83 82 77 73 75 84 82 87 89 84 86 91 87 91 98 75 47 39 47 65 47 52 64 76 78 62 94 74 48 68 76 59 71 57 59 64 60 73 54
39 37 40 40 43 40 38 40 41 45 44 54 74 83 81 75 76 76 73 70 78 95 98 90 55 57 50 53 66 53 81 70 61 72 99 44 51 62 88 62 93 54 73 67 65 68 89
38 36 38 40 39 40 44 43 41 40 44 46 50 48 45 53 51 53 63 98 100 100 97 94 79 68 69 68 79 78 81 76 78 84 84 53 72 60 58 82 82 68 74 77 72 71 98
21 22 23 26 29 31 32 37 42 44 43 39 42 45 47 52 65 65 72 85 100 99 90 90 92 93 95 89 96 100 86 70 84 96 93 81 78 86 81 76 80 76 81 96 94 74 54
25 23 20 19 17 15 14 13 12 12 12 14 17 31 44 53 56 78 98 100 100 90 94 98 94 78 92 92 85 93 99 95 92 94 95 92 89 92 91 80 76 73 71 89 86 78 67
28 30 30 33 32 31 29 27 25 24 20 17 13 12 12 11 15 17 27 66 95 96 98 100 100 98 99 99 95 93 91 98 99 94 98 98 97 83 78 85 97 86 91 81 100 95 100
16 17 19 20 22 22 21 20 23 26 22 22 26 27 24 16 12 10 10 10 13 35 87 100 100 100 99 99 100 100 99 100 99 100 92 99 98 88 98 99 100 99 97 100 100 99 88
17 19 22 24 26 35 39 43 45 45 42 35 35 33 26 22 19 16 12 11 10 10 13 58 100 100 100 100 99 97 99 95 95 97 98 83 97 94 98 97 99 98 100 98 95 100 98
35 42 48 41 39 39 48 53 51 49 47 51 46 34 33 32 28 20 17 17 18 17 36 97 87 100 100 100 100 100 99 100 96 99 98 100 98 99 100 100 99 97 98 100 100 92 94
54 58 64 67 68 62 52 44 35 31 27 33 37 33 38 38 32 32 30 26 25 22 25 47 98 100 100 100 100 100 100 100 99 100 100 100 100 99 97 98 99 100 100 98 100 100 93
61 59 54 47 41 40 47 56 64 70 70 59 43 34 30 38 44 44 39 36 32 28 25 23 31 88 100 100 100 99 100 100 100 100 100 99 100 100 100 100 99 100 96 98 100 100 97
14 16 20 16 13 14 12 10 10 12 18 34 64 67 33 25 31 38 39 41 36 34 35 32 24 27 29 31 41 69 89 96 99 100 100 100 98 100 100 100 100 100 94 88 90 98 100
22 22 20 21 23 25 23 17 16 22 53 95 42 31 50 59 31 29 30 30 32 29 28 26 26 28 32 28 31 33 30 29 25 33 28 55 40 36 24 30 48 77 74 74 73 75 77
28 28 26 24 18 22 28 40 59 67 75 68 100 100 83 56 76 53 30 29 29 30 29 26 26 26 26 28 28 28 27 27 25 25 26 23 20 21 20 36 71 97 36 70 57 44 52
26 26 17 14 19 46 53 59 67 74 83 91 95 97 100 100 95 82 89 67 36 31 27 27 26 23 35 34 28 29 32 34 32 28 42 44 53 75 53 66 92 76 56 83 98 100 100
25 20 18 23 32 41 42 53 64 77 88 96 100 100 100 100 100 100 100 100 100 93 80 45 30 33 30 32 44 50 66 60 56 54 67 92 90 66 76 85 80 87 89 78 78 81 94
24 20 23 34 44 47 58 67 71 74 100 100 100 100 100 98 95 100 100 100 96 100 96 89 92 94 92 98 98 73 95 94 99 96 100 100 100 96 89 94 90 71 100 100 100 99 100
24 24 27 34 45 63 73 65 76 100 94 100 99 100 95 87 96 100 99 100 100 98 87 100 90 82 96 96 100 100 100 100 100 95 86 78 69 66 57 60 58 78 73 82 97 92 83
27 28 26 33 38 63 67 48 55 71 83 97 98 79 74 94 100 100 100 100 97 98 89 86 92 99 93 100 100 100 99 100 96 90 72 59 46 43 60 60 59 76 74 76 87 93 82
25 34 33 32 35 45 46 45 54 61 68 74 72 89 99 99 99 92 100 100 100 93 84 100 100 100 96 99 94 100 100 99 90 81 74 66 47 92 86 100 100 80 98 100 100 100 82

GFSGBSN_500_rhum_210.txt.gz
RH
96 99 93 90 90 92 93 91 95 94 90 87 82 82 80 78 82 76 82 78 77 72 74 86 79 75 62 52 46 92 80 84 93 94 92 82 72 77 61 52 61 54 53 49 50 54 53
84 83 76 80 80 75 77 90 93 89 96 91 72 61 54 51 54 56 58 59 68 73 81 87 91 76 63 36 44 80 93 79 90 78 69 73 76 78 43 46 46 58 50 45 52 57 65
95 93 95 94 90 94 96 95 93 88 86 88 74 71 64 51 42 44 60 59 65 72 72 73 80 83 54 37 39 53 83 97 92 72 52 82 67 54 55 41 45 50 42 40 49 52 55
94 100 95 93 91 97 96 96 97 89 92 92 85 93 97 96 64 53 62 65 68 72 78 75 77 69 35 36 45 43 84 79 97 94 72 96 83 52 38 45 36 38 32 33 44 53 55
97 98 94 97 95 98 96 90 91 76 79 92 90 89 83 77 88 83 82 87 86 83 84 81 67 64 38 30 30 68 67 100 90 99 86 83 73 56 45 49 47 37 30 37 44 53 50
84 88 94 92 96 84 95 95 98 89 92 80 94 84 76 70 68 84 100 98 92 89 84 88 73 59 36 44 55 51 54 62 86 95 91 91 85 61 47 48 40 56 34 30 29 38 47
88 74 75 78 85 96 90 84 93 93 79 95 87 80 88 66 67 66 100 98 96 99 82 79 77 60 51 56 47 45 48 61 71 84 87 84 72 46 50 59 62 57 42 32 36 43 44
65 71 76 83 68 72 76 76 78 75 86 74 90 72 82 73 62 83 87 92 100 100 90 75 74 57 61 67 54 47 49 62 82 87 83 78 53 71 76 60 62 59 45 40 53 49 51
42 63 62 69 81 84 76 75 64 68 78 81 74 72 70 94 79 95 99 100 95 100 98 69 64 46 49 70 58 50 50 53 71 80 77 72 44 63 67 70 62 46 47 54 60 68 60
69 73 67 69 79 84 78 81 78 72 65 64 62 60 61 93 92 95 99 99 100 100 99 71 63 50 52 68 50 58 67 70 66 62 79 81 54 65 73 60 70 62 58 61 64 72 57
45 47 47 45 44 45 48 48 51 50 52 52 46 45 50 52 53 80 91 95 99 100 99 85 53 58 52 54 62 63 78 80 63 64 98 52 61 75 80 40 100 58 84 81 78 81 82
43 45 47 49 51 52 56 52 53 47 47 50 47 46 48 46 57 59 59 66 75 100 98 91 66 62 61 61 55 64 62 75 76 97 92 77 73 83 65 67 92 90 81 77 86 81 98
21 23 24 25 25 25 25 28 33 37 44 48 52 54 55 56 60 56 57 67 90 100 90 88 83 93 88 92 85 91 93 96 88 100 95 96 90 87 100 98 92 100 98 97 100 100 61
14 20 25 27 29 32 33 32 30 30 25 18 16 17 17 17 24 38 37 38 77 90 95 94 92 91 87 83 96 95 100 99 96 98 95 92 81 81 92 87 84 100 99 98 99 93 65
10 13 17 22 27 31 33 33 31 27 26 25 26 27 27 28 19 15 13 12 12 14 32 63 98 100 100 97 93 93 90 99 100 88 99 99 99 74 64 65 88 74 96 88 99 98 99
6 10 14 18 20 20 22 25 30 31 30 26 24 21 20 23 19 22 25 23 16 13 12 12 21 80 100 100 99 91 96 93 100 91 61 78 94 95 99 73 86 100 93 100 98 94 94
8 11 16 21 25 28 36 38 42 45 48 47 50 51 44 44 34 23 18 22 25 23 18 24 34 22 36 56 80 93 100 91 100 97 99 98 100 100 100 97 97 94 100 100 96 99 98
25 35 42 46 48 49 50 49 47 42 37 35 36 41 38 40 40 39 32 30 28 28 28 28 26 34 64 100 100 100 100 89 86 96 90 99 99 98 97 100 97 99 97 99 98 100 100
57 57 56 54 53 55 58 60 62 61 60 63 55 45 32 30 35 38 41 41 40 38 34 28 27 90 100 100 98 100 99 100 96 89 84 95 100 100 98 96 99 100 100 98 100 99 98
16 13 12 13 14 16 16 15 14 15 14 17 29 55 65 57 34 27 37 44 43 42 39 35 31 33 85 99 100 100 100 100 100 100 100 99 99 89 90 92 88 94 96 98 100 99 100
13 17 21 21 21 21 20 20 20 22 24 58 26 23 32 40 54 46 32 33 41 48 63 53 36 30 27 48 100 100 100 100 100 100 100 100 100 100 99 98 94 90 89 95 99 96 100
18 26 27 26 20 14 12 14 29 53 73 70 100 100 100 100 90 84 78 40 32 35 37 52 66 57 38 28 31 51 87 99 99 100 100 95 92 100 96 100 100 94 91 93 91 97 88
14 20 24 18 16 23 30 44 51 56 82 94 100 91 96 100 100 100 84 100 78 43 35 33 32 29 30 32 32 33 44 44 38 40 50 51 49 48 58 59 68 74 68 53 43 41 35
17 22 21 22 22 36 41 45 43 49 60 81 82 100 100 92 92 99 100 100 99 97 55 36 32 31 36 34 29 28 28 28 28 28 30 29 30 30 25 25 26 22 20 19 21 21 25
19 23 23 27 25 43 48 44 56 71 81 82 100 100 100 99 99 94 100 100 100 85 98 86 44 35 31 28 28 28 29 28 26 30 37 53 52 43 50 39 36 25 28 33 38 40 57
16 24 26 28 28 36 38 35 55 81 99 96 98 96 97 100 97 100 98 100 97 82 89 82 100 100 90 71 38 33 32 31 34 55 80 83 82 82 75 75 64 49 53 58 70 47 60
21 19 27 32 30 36 37 34 47 56 72 81 67 56 77 97 100 100 100 100 86 69 92 93 98 100 100 100 99 93 90 98 99 99 97 100 98 90 78 65 52 46 44 43 47 56 57
24 22 19 35 34 34 39 44 52 57 55 58 70 90 95 98 100 100 100 100 74 86 100 97 83 98 98 92 93 96 98 100 100 100 100 97 95 73 56 45 34 39 45 64 74 58 61
17 26 22 24 41 42 40 43 44 48 66 58 62 74 82 93 76 83 99 100 91 91 95 100 100 100 100 100 80 100 97 100 100 100 100 77 61 51 52 53 78 73 93 100 92 78 75

GFSGBSN_500_rhum_216.txt.gz
RH
98 98 97 94 93 93 90 92 98 94 94 97 96 95 96 96 96 96 94 92 87 75 88 91 94 81 72 58 50 70 70 69 73 76 90 90 84 86 66 61 60 55 59 54 48 37 64
96 92 84 88 87 85 85 95 96 94 96 97 98 92 92 98 95 85 93 94 90 94 95 94 90 82 68 42 38 63 59 58 81 71 81 82 81 78 57 58 52 49 44 48 48 58 54
100 97 98 89 72 73 76 85 94 96 95 94 99 99 96 89 90 83 89 80 84 89 92 96 95 84 58 40 46 48 46 61 69 70 67 69 72 72 65 51 53 41 35 36 46 61 46
93 94 97 92 96 86 99 96 97 96 97 98 98 95 90 92 94 96 96 100 94 94 94 98 99 93 48 49 63 53 77 71 79 73 63 78 78 72 61 55 49 44 37 32 44 51 53
97 98 89 65 88 95 94 91 94 88 93 94 90 90 92 88 93 96 87 83 96 95 95 99 94 99 58 43 47 70 68 85 89 88 87 82 86 62 60 55 46 40 40 40 38 46 41
47 41 38 35 32 41 39 35 32 39 42 60 62 63 41 60 78 78 70 64 86 94 94 100 93 100 52 50 58 65 65 74 83 94 96 84 91 66 51 54 42 69 57 45 35 43 31
33 34 30 28 32 34 41 46 51 44 62 55 73 61 48 70 61 72 74 79 83 88 94 96 94 77 62 67 62 64 70 60 68 71 66 94 93 56 65 61 70 67 51 44 48 56 39
22 23 25 24 30 42 56 65 63 70 73 75 74 74 73 86 91 100 100 94 89 81 91 88 89 66 72 88 65 61 66 73 99 81 74 83 46 75 90 79 71 72 56 39 53 69 65
12 12 18 28 45 51 56 71 63 59 67 75 74 78 80 87 95 100 99 99 99 100 99 85 74 69 79 100 90 72 71 92 76 85 92 91 40 81 80 71 68 62 46 49 56 94 72
4 4 3 3 4 4 6 8 13 18 30 43 55 64 72 83 95 100 100 96 99 100 100 82 78 71 77 100 86 98 92 95 100 90 100 99 54 100 80 62 72 57 65 70 68 79 59
4 4 4 4 4 3 3 2 3 7 12 13 15 18 24 39 56 69 85 96 100 100 100 86 66 69 73 91 91 90 100 93 75 82 100 83 68 95 99 48 100 48 90 80 78 79 72
5 5 4 4 3 3 2 2 1 1 4 8 9 11 20 27 27 27 36 59 77 90 99 99 66 65 70 68 68 78 76 89 89 96 100 72 85 97 81 88 99 88 81 88 95 89 100
6 5 4 4 3 2 1 1 2 2 2 6 13 15 23 28 31 34 32 28 26 30 80 89 85 72 71 72 74 78 83 78 79 88 92 91 82 96 97 86 86 94 92 92 87 98 46
6 5 4 3 3 2 1 3 4 4 5 9 19 30 39 44 45 46 46 43 34 26 22 42 69 72 65 58 69 82 89 85 75 77 85 83 79 77 90 87 77 86 88 90 100 99 92
6 5 4 3 2 1 3 12 15 13 17 25 36 44 44 44 45 50 55 54 52 47 43 37 27 22 35 35 57 60 89 99 96 97 84 82 83 74 58 69 87 77 99 73 100 96 100
6 5 4 3 2 3 10 19 23 34 40 47 49 52 55 54 52 47 48 49 49 50 50 48 44 44 38 34 45 100 96 83 80 69 96 76 92 93 97 99 98 98 98 100 97 96 98
6 5 4 2 2 6 12 12 11 12 13 20 38 54 48 45 40 42 47 48 50 52 51 49 46 44 40 38 35 34 92 100 100 100 100 100 91 87 82 58 98 99 95 99 96 98 96
6 5 4 2 3 8 9 10 14 16 17 18 19 19 20 25 40 47 43 33 37 40 42 49 50 46 43 47 39 35 29 55 84 78 87 89 98 82 86 94 85 98 99 74 99 100 100
6 5 3 2 5 9 14 16 14 15 17 17 18 22 31 37 29 29 35 48 44 31 36 43 46 50 48 45 70 94 69 71 40 21 25 36 68 99 100 99 100 100 100 100 99 99 98
7 5 3 3 7 12 15 13 16 20 48 81 88 89 83 76 71 68 42 42 44 46 34 40 46 51 50 48 49 98 100 100 100 88 100 48 51 53 82 76 85 82 99 100 99 98 98
7 6 4 3 7 12 15 15 19 26 47 70 70 75 71 72 90 100 100 97 94 55 67 87 100 92 94 53 46 45 84 100 100 100 100 100 100 100 100 98 69 49 52 72 93 100 98
8 6 4 4 8 14 16 19 29 32 39 56 82 95 100 86 86 90 93 100 100 100 80 53 76 100 100 91 52 46 43 58 76 94 100 100 100 100 100 90 85 91 94 86 84 99 93
9 6 4 4 9 13 17 20 35 36 47 60 90 100 100 99 100 93 98 93 95 100 100 99 100 100 100 100 85 59 45 50 86 100 100 97 100 100 100 100 99 80 80 84 95 97 92
11 7 4 4 9 14 18 19 28 30 39 53 54 64 98 97 100 90 77 74 83 97 94 100 95 92 76 67 70 63 71 66 49 39 45 56 85 97 96 97 98 97 89 88 81 74 69
12 8 5 3 8 14 18 21 30 32 35 46 57 50 72 75 99 100 100 100 92 65 90 93 89 93 98 99 65 48 43 42 40 39 39 39 38 40 42 45 53 53 51 43 37 35 37
14 9 6 4 6 15 18 22 29 27 30 36 40 51 71 85 76 75 59 78 91 89 90 100 83 64 67 81 88 74 49 39 35 48 62 36 31 54 41 40 40 75 36 40 35 37 33
15 11 7 4 4 12 18 23 30 25 37 38 44 46 47 49 56 69 78 85 97 93 100 94 61 62 97 99 84 91 93 87 82 72 59 68 48 63 88 86 100 61 59 60 49 58 46
18 13 9 6 3 6 17 19 25 31 31 41 46 54 47 46 62 70 81 98 91 100 96 88 49 69 100 100 100 100 100 100 100 100 100 100 100 100 99 100 99 87 65 52 48 35 26
21 15 11 7 4 3 11 18 22 27 35 44 44 53 59 62 66 77 73 84 87 75 70 85 100 100 100 100 100 99 100 96 97 99 99 100 93 100 99 97 90 50 30 23 34 39 56

GFSGBSN_500_rhum_222.txt.gz
RH
94 96 94 86 74 94 95 96 97 95 97 96 91 94 96 96 96 90 89 92 93 96 97 97 93 97 82 66 46 79 71 67 66 66 76 82 65 82 82 78 73 66 59 59 59 61 58
95 95 95 95 96 96 98 100 95 97 96 92 86 86 87 88 95 95 95 91 87 91 84 80 96 100 90 50 59 80 95 84 82 89 94 85 92 97 80 72 62 58 54 50 47 59 71
96 96 97 95 96 97 99 97 94 92 91 81 79 91 86 86 71 67 80 85 69 83 89 86 96 100 91 32 61 53 67 81 88 98 93 99 94 94 85 80 64 51 48 46 41 53 57
96 96 96 97 96 95 86 80 58 59 63 67 70 72 84 78 61 42 51 51 40 48 82 90 88 94 84 58 53 46 56 56 82 95 93 100 100 94 82 86 64 59 55 44 41 54 56
92 96 95 95 95 97 86 70 62 52 47 44 40 42 38 43 45 41 38 28 28 44 45 64 64 88 67 46 51 62 59 84 80 86 87 100 99 88 82 65 71 56 46 41 41 50 62
97 96 96 86 91 77 66 53 36 34 45 40 39 30 25 29 28 29 26 26 32 36 54 66 40 79 32 37 71 64 58 62 87 86 75 89 100 99 60 57 40 73 50 53 41 62 73
84 87 86 58 31 26 23 18 14 13 11 12 17 14 18 26 30 29 30 43 54 66 78 69 69 72 46 55 100 60 64 53 49 73 71 80 100 85 29 66 63 91 71 49 37 62 75
50 36 35 21 14 13 11 10 9 8 11 9 7 6 5 4 5 5 5 4 4 4 5 10 23 56 58 94 100 93 88 100 65 77 74 93 74 36 91 82 80 83 65 33 54 78 96
23 20 16 14 12 12 12 10 7 5 5 5 5 6 5 6 6 5 5 5 4 4 4 3 3 3 3 18 62 86 99 99 99 98 99 99 82 99 100 94 78 63 54 34 59 85 85
15 14 12 11 9 7 5 5 6 6 6 6 6 6 6 4 3 3 3 3 2 2 2 2 2 3 3 5 7 14 60 87 93 97 99 96 81 100 96 96 76 63 49 68 62 89 60
17 13 10 6 5 5 6 6 7 8 8 7 5 3 3 3 3 3 2 2 2 1 3 4 4 8 7 6 6 4 8 48 75 85 100 93 94 98 85 85 99 70 68 68 74 88 80
12 7 5 6 8 9 9 10 10 8 6 4 4 3 3 3 2 2 2 2 3 4 4 7 28 98 97 97 61 16 9 14 31 70 94 92 98 100 95 97 96 96 87 99 82 100 99
5 7 9 11 12 13 12 10 8 5 4 4 3 3 3 3 2 2 2 6 12 14 17 24 92 74 40 99 95 99 82 28 33 45 65 71 90 89 99 98 99 96 98 96 98 98 77
11 13 13 14 13 12 9 6 4 4 4 3 3 3 3 2 2 3 6 12 24 20 38 100 82 60 100 83 66 100 91 100 76 99 100 60 74 86 86 97 96 99 99 92 98 96 89
15 16 15 14 12 10 6 5 5 4 4 3 3 3 2 2 4 8 15 16 23 37 39 100 93 84 57 100 93 67 56 100 100 98 100 98 96 66 83 98 98 79 98 93 100 94 97
18 17 15 13 11 7 6 6 5 4 4 4 3 2 2 5 22 46 81 94 95 89 55 64 100 83 85 70 100 100 70 100 100 100 100 100 100 99 100 97 97 99 87 97 98 98 91
20 18 16 13 10 6 6 6 6 5 4 4 3 2 5 9 26 91 97 97 100 100 100 95 56 53 71 67 64 93 100 100 100 60 88 100 100 100 100 99 99 98 91 97 99 99 95
21 19 16 12 7 6 7 7 6 5 4 3 2 3 5 28 72 88 91 100 97 100 100 99 88 45 41 47 53 59 62 75 88 82 89 100 100 98 97 100 98 98 99 98 100 98 98
24 19 15 11 7 7 8 7 6 5 4 3 3 5 21 50 85 93 87 86 99 96 100 96 69 79 76 89 97 86 66 59 59 52 92 95 91 100 100 91 97 99 99 100 99 99 100
22 18 15 11 8 9 8 8 6 6 4 3 4 7 20 77 78 85 97 88 91 90 97 96 77 83 81 84 91 89 84 97 95 63 56 49 60 95 100 100 100 100 99 96 98 99 100
21 18 15 11 9 10 9 8 7 6 4 3 6 9 16 56 60 72 73 71 76 72 88 70 96 100 100 100 98 88 89 100 98 100 95 77 85 100 76 84 90 95 100 100 100 100 100
22 19 16 12 11 11 11 9 8 6 4 4 7 11 16 24 40 67 82 100 98 93 91 77 86 100 100 94 100 100 100 100 100 100 99 100 100 100 100 100 100 100 100 81 79 82 95
24 20 17 14 13 13 12 10 8 7 5 4 10 15 17 27 59 80 92 88 98 48 60 63 70 100 100 100 100 100 95 94 97 91 93 92 97 99 100 100 100 98 95 100 100 99 98
25 22 20 17 15 14 13 10 9 7 5 4 8 16 19 25 46 67 84 94 100 94 63 91 68 79 100 100 96 98 86 76 66 68 75 71 72 65 83 98 97 92 98 100 100 99 100
27 25 23 19 18 16 15 12 10 8 5 4 8 15 20 27 38 65 76 72 82 84 77 47 40 49 67 93 81 92 85 70 53 56 54 50 50 76 67 81 76 100 100 98 92 100 100
29 28 25 22 20 18 17 14 11 9 6 5 8 23 20 26 34 63 74 70 69 83 94 61 71 76 47 58 90 82 63 59 82 100 95 100 99 71 70 88 92 100 100 99 98 100 100
32 30 28 25 23 21 19 16 13 10 7 5 7 12 18 25 31 46 67 54 73 75 76 100 84 100 94 93 86 84 87 74 90 91 100 100 100 92 92 84 71 97 100 100 99 94 82
35 35 32 29 27 24 21 18 15 12 9 6 6 11 18 27 32 51 71 69 52 68 98 96 75 100 100 100 100 100 100 99 100 91 90 96 100 100 96 82 91 79 91 94 99 100 100
40 39 35 33 31 27 25 21 17 14 10 8 6 9 16 26 35 60 97 68 76 72 67 53 94 86 89 87 92 100 100 100 100 99 87 93 92 90 100 100 100 76 100 100 100 98 90

GFSGBSN_500_rhum_225.txt.gz
RH
60 66 71 81 94 94 86 87 92 92 95 95 93 94 93 88 95 90 65 71 81 80 88 85 80 81 84 64 43 83 72 67 72 79 87 93 92 99 87 82 76 76 61 60 63 64 60
60 94 93 92 95 95 95 96 96 98 97 95 96 92 97 92 91 90 78 72 81 89 90 90 97 96 88 44 56 62 76 74 63 67 67 91 90 99 85 78 78 82 64 56 62 59 64
93 93 96 95 96 98 96 96 96 97 97 96 95 92 76 66 65 66 64 68 75 75 71 61 61 71 56 29 49 42 43 54 71 90 78 84 93 98 98 89 80 64 54 47 44 60 58
95 96 97 94 97 95 96 96 96 96 96 87 74 53 44 43 42 42 42 39 42 45 48 46 46 45 37 34 35 35 35 42 64 73 98 100 93 99 89 94 70 59 53 34 39 66 66
97 95 95 94 89 93 97 98 96 89 80 72 46 24 21 25 28 30 26 27 30 39 35 43 38 68 22 18 30 64 86 61 73 59 44 92 100 93 97 92 73 50 40 38 37 58 78
96 96 96 96 96 97 96 95 46 34 32 29 22 18 16 22 24 21 21 26 33 31 35 35 40 45 24 27 37 47 48 83 73 78 82 83 100 100 97 74 46 51 55 41 33 51 69
96 96 95 93 92 72 42 28 24 20 18 18 21 18 17 18 15 12 8 5 4 4 4 4 4 4 3 4 4 4 5 16 66 85 77 94 100 98 70 62 83 80 72 50 29 51 68
95 94 67 48 45 33 22 19 15 15 20 24 18 15 11 6 4 4 4 4 4 5 3 3 2 2 2 3 3 2 3 4 10 13 33 79 89 66 79 96 94 78 74 49 31 66 88
96 77 46 30 22 18 18 19 19 19 18 12 6 5 5 6 6 7 6 4 3 3 2 2 2 2 2 2 2 2 3 3 4 17 30 59 26 94 80 96 99 81 77 48 61 93 98
69 35 22 21 23 22 22 16 11 6 6 6 6 7 7 8 7 5 3 3 3 2 2 2 2 3 4 4 3 6 5 5 5 22 20 28 24 69 79 95 92 96 65 85 98 99 85
39 27 22 20 20 18 11 6 6 6 8 9 10 9 8 6 4 3 3 2 2 2 2 2 3 4 3 5 35 31 27 16 49 20 59 25 20 24 73 91 100 90 100 100 97 96 100
25 21 24 23 14 7 6 8 10 10 9 9 9 6 4 4 3 2 2 2 2 2 2 3 6 4 5 25 100 95 100 100 92 40 78 47 26 23 28 68 99 98 94 98 89 89 99
39 30 19 10 7 8 10 11 10 10 10 8 5 4 4 3 3 2 2 2 2 3 8 9 16 8 14 33 52 100 100 100 100 100 71 53 48 32 30 42 66 93 97 97 96 97 95
39 17 7 8 11 13 13 13 12 11 8 6 4 4 3 3 2 2 2 2 3 12 25 29 17 11 59 52 100 60 58 100 100 100 100 99 95 53 41 64 57 94 100 99 98 96 95
8 9 13 15 15 15 15 14 11 8 5 4 4 4 3 3 2 2 2 3 21 46 67 93 87 44 16 48 76 99 100 100 100 98 99 97 100 100 100 52 60 61 98 94 97 98 98
15 17 18 18 18 17 15 12 8 6 5 5 4 4 3 3 2 2 4 19 45 84 98 93 96 88 42 39 74 64 75 100 100 100 100 98 97 100 97 100 99 77 93 100 98 99 99
20 22 22 21 19 16 13 9 7 6 6 5 4 4 3 3 3 3 11 31 61 80 100 96 90 74 76 47 48 82 86 93 100 100 100 100 100 100 99 98 99 100 100 94 100 99 95
26 25 24 23 19 16 10 8 8 8 6 6 4 4 3 3 3 5 17 54 64 60 70 88 77 69 97 66 45 45 77 100 100 100 96 89 83 86 99 91 96 100 100 100 99 99 98
31 30 25 22 18 14 10 8 9 8 7 6 5 4 4 3 3 5 29 75 96 82 73 63 58 59 87 98 89 93 88 100 100 99 99 96 83 83 95 93 100 100 100 100 99 100 100
35 30 25 21 17 13 9 9 10 8 8 6 5 4 4 4 4 6 20 52 56 71 66 61 60 73 100 100 100 88 100 100 100 99 99 98 100 100 90 66 88 99 98 92 98 100 99
37 30 24 20 17 11 9 11 10 9 8 7 6 5 4 3 7 15 46 68 76 64 90 75 45 51 91 100 100 96 84 97 100 100 100 100 100 100 97 77 63 68 75 91 97 100 100
36 28 24 20 16 11 10 12 12 10 9 7 6 5 4 4 8 18 48 52 58 70 67 78 61 48 63 100 100 100 100 99 86 100 100 100 100 100 100 100 97 100 92 69 80 100 100
36 29 24 20 16 13 12 13 13 12 10 8 7 6 4 5 11 25 45 61 65 76 73 96 80 59 52 91 98 97 100 99 70 66 81 67 66 71 88 100 99 89 97 98 100 100 100
35 29 25 22 17 15 14 16 14 13 11 9 8 6 4 6 13 24 40 66 61 77 92 84 57 44 62 81 70 84 86 88 95 80 79 67 52 54 56 69 86 99 92 98 100 96 100
34 30 26 22 19 18 17 18 16 15 13 10 9 7 5 6 15 26 39 44 60 70 76 94 88 92 52 41 57 56 74 78 64 56 62 38 39 40 41 38 42 74 100 100 98 93 78
35 31 26 24 23 20 21 20 19 17 15 12 10 8 5 6 13 30 48 38 42 66 83 79 89 100 68 87 46 70 54 43 39 40 82 87 82 88 99 78 84 91 72 80 100 100 100
36 31 30 28 26 25 24 23 22 20 17 14 11 8 5 6 12 26 65 52 51 54 78 75 82 80 90 100 100 100 90 86 76 70 86 86 100 92 100 96 96 84 100 100 100 100 100
37 35 33 31 30 28 27 28 25 24 20 16 13 10 7 6 10 26 65 54 74 76 40 52 61 76 75 77 86 100 100 100 100 97 99 93 100 100 100 100 93 96 92 97 100 100 99
38 36 35 34 34 32 31 31 29 27 23 18 15 12 8 6 8 16 51 51 69 53 62 40 72 72 50 54 73 100 100 100 100 100 100 99 99 97 88 100 91 99 100 100 100 100 100

GFSGBSN_500_rhum_228.txt.gz
RH
26 27 28 27 29 34 39 60 92 95 95 95 94 93 98 99 90 89 72 81 83 86 75 82 79 71 68 50 38 77 66 65 69 78 81 86 89 98 94 94 99 89 60 68 59 57 52
32 32 36 36 33 33 38 58 94 92 94 94 96 93 95 98 86 80 84 81 76 75 78 79 70 61 52 29 43 54 80 83 70 63 64 76 80 100 88 71 80 94 94 57 52 48 44
52 62 85 88 68 57 77 85 94 93 95 96 98 85 80 87 76 64 52 41 42 51 61 50 41 34 13 13 24 23 29 48 80 79 60 69 98 100 94 79 81 80 82 51 32 39 42
84 92 94 90 90 87 90 95 95 94 91 96 98 87 74 68 48 35 25 21 24 32 28 32 31 28 7 9 18 26 53 41 54 70 70 80 100 96 86 100 82 91 84 45 29 42 44
94 90 94 87 96 97 97 96 96 94 93 92 80 51 41 36 33 23 15 10 16 19 23 22 27 31 6 14 17 23 35 39 47 48 52 65 90 85 99 92 94 69 74 74 34 42 55
96 95 95 97 96 97 96 95 87 85 82 64 41 30 23 25 22 17 14 15 24 19 13 10 8 6 4 4 4 4 4 4 4 5 4 5 21 50 67 80 78 72 90 78 48 50 64
99 98 94 97 97 97 97 96 59 41 32 31 26 16 12 20 19 16 12 12 11 7 4 4 4 3 4 4 2 3 3 2 2 3 2 4 4 4 3 9 52 88 97 94 58 53 75
97 96 96 96 96 78 72 64 42 42 31 22 18 19 19 21 16 12 7 4 4 4 3 5 5 4 3 3 2 2 3 2 2 2 2 2 2 2 5 9 34 59 91 67 55 59 89
98 97 97 97 93 56 33 32 28 21 21 23 23 23 18 10 6 5 6 6 5 4 4 3 3 3 2 2 2 2 2 2 3 3 3 3 2 34 62 90 63 44 38 37 67 74 69
97 97 96 92 44 31 34 34 31 31 28 26 15 7 7 7 7 8 7 6 4 4 3 3 2 2 2 2 2 4 4 4 4 9 8 10 4 45 78 97 95 94 94 44 37 73 80
99 98 71 44 33 35 40 30 26 21 12 8 7 6 9 8 8 8 5 4 4 3 3 3 2 2 2 2 3 2 12 14 24 24 68 15 14 12 45 47 77 64 62 97 93 96 96
98 94 54 38 41 46 32 23 15 8 7 10 11 10 10 10 7 5 4 4 4 3 2 3 3 3 3 6 6 7 4 71 96 99 100 93 62 56 54 69 97 89 82 98 86 76 99
84 57 62 65 54 36 20 10 9 11 12 12 12 12 9 6 5 4 4 3 3 2 2 2 2 3 6 9 9 9 9 25 92 100 96 100 99 90 86 85 100 100 100 94 99 99 93
51 53 66 62 36 18 10 10 12 13 13 13 12 10 6 5 5 4 3 2 2 2 2 2 4 10 47 47 33 20 26 55 100 100 98 90 100 99 100 91 86 100 96 86 100 95 93
60 74 53 34 16 10 14 14 15 15 14 13 9 7 6 6 5 4 3 2 2 2 3 7 32 62 61 57 69 59 44 58 100 100 100 79 98 100 100 100 84 75 98 97 100 98 98
74 45 18 10 15 18 18 17 16 16 13 9 7 7 6 5 4 3 3 3 3 4 8 38 61 84 79 56 57 60 38 57 84 99 100 99 74 98 100 100 100 100 79 88 90 88 98
22 8 13 20 21 21 20 18 17 14 9 8 8 8 6 5 4 3 3 3 4 10 34 50 58 61 59 56 62 89 66 63 100 100 100 86 92 95 98 100 100 100 100 77 98 94 79
12 19 22 23 23 22 21 18 16 10 9 9 9 7 6 4 4 4 3 4 5 15 40 43 45 48 51 62 54 99 100 100 95 96 100 85 70 72 85 100 100 100 100 100 96 100 99
22 25 26 27 26 23 19 17 12 10 10 10 9 7 6 5 4 4 4 6 11 27 55 47 49 46 50 82 75 100 100 100 100 100 100 91 100 98 76 100 97 99 100 100 100 100 98
30 29 28 29 25 21 19 16 12 11 12 11 9 7 6 5 5 4 4 9 17 30 40 66 59 58 50 58 92 95 99 97 100 100 96 94 100 100 100 100 95 96 95 100 100 99 98
32 31 32 30 25 20 18 14 13 12 13 12 10 8 7 6 5 5 5 10 23 28 40 48 55 74 54 40 64 99 100 100 92 100 100 98 75 90 100 100 100 100 100 98 99 100 93
36 38 36 30 24 20 18 15 15 14 14 13 11 8 7 6 5 5 6 15 24 31 54 51 72 65 79 45 39 64 98 100 100 97 100 100 99 100 99 100 100 100 100 100 84 74 82
39 38 34 28 24 22 18 18 16 16 16 15 12 10 8 7 6 5 8 19 28 32 55 65 70 83 58 74 67 66 74 86 99 100 98 99 81 71 71 90 100 100 100 100 86 91 85
45 39 33 28 26 23 20 20 18 17 18 16 13 11 10 8 6 6 10 26 35 30 29 48 68 93 87 92 47 57 56 58 86 76 76 66 59 42 40 41 68 100 99 90 90 89 100
45 39 35 31 27 22 20 21 20 20 20 17 14 12 11 9 7 6 9 27 38 40 38 36 53 78 95 82 39 48 58 47 54 59 55 46 45 47 54 42 41 48 74 96 99 82 60
45 42 37 31 25 21 22 23 23 22 22 18 16 15 12 10 8 6 7 17 39 40 50 58 45 59 80 72 74 63 66 42 38 35 36 56 78 83 84 100 89 100 87 90 70 100 96
48 41 35 29 24 23 26 25 25 24 23 20 18 17 14 11 8 7 6 11 29 41 30 42 44 49 55 83 100 100 93 95 79 67 68 76 88 98 100 99 87 100 100 100 98 100 100
40 37 33 28 27 27 27 28 27 27 26 23 21 20 16 12 9 8 6 8 22 44 25 27 46 42 36 74 98 100 91 100 100 81 96 86 78 81 85 100 98 91 100 100 98 100 98
37 35 30 29 28 29 30 29 29 29 28 26 24 22 19 15 11 9 7 7 10 31 22 25 35 29 28 45 62 69 90 86 82 98 80 97 90 100 100 96 81 62 59 88 90 100 100

GFSGBSN_500_rhum_234.txt.gz
RH
94 89 37 20 17 15 14 13 12 11 11 11 11 14 22 29 27 47 65 90 84 62 64 65 60 68 58 60 61 77 67 62 66 71 64 76 73 75 70 66 64 47 44 47 41 49 55
96 95 84 29 34 27 19 14 13 13 13 13 15 17 23 26 30 38 49 68 77 65 57 64 63 61 63 60 73 71 81 86 73 60 46 44 44 54 37 36 42 56 62 24 19 33 51
96 96 92 75 39 20 20 26 29 17 17 16 18 21 33 40 28 35 66 63 73 68 60 61 58 62 58 54 51 46 43 50 59 50 39 45 44 36 35 25 33 49 52 40 14 41 63
95 95 94 88 68 34 50 60 25 25 30 35 29 27 31 40 50 77 74 69 85 75 63 50 48 49 49 42 32 25 19 16 16 18 21 25 30 26 30 35 39 36 44 37 11 45 57
90 96 97 98 91 51 32 75 52 50 61 62 76 75 82 84 83 77 66 70 88 63 42 49 44 52 36 27 22 18 14 12 13 13 10 9 8 8 6 6 6 8 10 11 13 12 22
97 93 97 97 92 55 86 92 96 93 88 95 90 80 87 93 81 79 80 86 66 36 36 39 34 34 29 15 11 9 8 7 6 5 5 4 4 4 4 5 4 4 4 4 4 3 13
98 88 96 97 95 72 95 92 85 91 90 84 85 87 86 98 97 87 76 68 49 33 38 32 18 11 10 9 8 6 4 4 3 3 3 3 3 3 3 3 3 4 3 3 2 2 6
100 95 97 96 94 96 94 94 93 96 92 87 92 98 91 95 86 76 74 52 32 27 28 18 13 9 7 6 6 6 4 4 4 4 3 3 3 3 3 3 3 3 3 3 4 3 8
94 97 97 94 94 93 94 96 90 88 96 97 97 100 87 89 74 48 41 33 22 21 19 11 8 6 6 5 5 4 4 4 4 3 3 3 3 3 3 3 4 3 4 7 9 4 7
98 97 96 95 100 98 95 94 89 96 98 98 92 97 97 76 45 37 28 20 17 11 9 7 6 6 5 4 4 4 4 4 3 3 3 2 2 3 3 2 4 3 10 13 10 22 10
95 92 99 93 97 96 95 98 98 97 98 98 95 99 90 58 45 40 22 16 10 9 9 6 6 5 5 5 5 4 4 3 3 2 2 2 2 2 2 4 5 4 6 44 51 26 14
97 98 99 96 98 95 99 96 98 97 97 98 84 64 57 47 31 18 11 9 10 9 6 6 6 6 5 5 4 3 2 2 2 2 2 2 2 3 3 6 35 78 62 93 64 68 78
98 97 97 96 97 97 98 99 98 99 100 85 70 66 41 22 13 11 10 10 8 7 6 6 6 5 4 3 3 2 2 2 2 2 2 3 4 10 31 56 93 87 100 99 65 63 52
99 96 95 98 97 98 98 98 98 98 85 78 69 37 18 12 10 11 10 8 7 8 8 6 5 4 3 2 2 2 2 3 4 8 9 28 8 62 99 100 76 51 100 100 100 90 81
97 97 98 96 98 98 98 96 80 88 69 62 27 14 12 13 11 10 8 9 9 8 7 5 4 3 2 2 2 2 4 6 10 26 63 76 57 54 92 82 100 100 100 100 90 74 95
97 97 98 99 98 97 91 99 97 88 52 18 14 14 14 12 10 9 10 10 9 7 5 3 3 2 2 2 3 3 5 24 31 78 99 86 79 77 63 65 95 100 100 90 95 85 99
98 98 99 99 96 98 100 98 84 34 14 15 15 14 12 11 10 10 11 10 7 5 4 3 3 3 3 3 4 10 23 47 45 62 98 100 100 92 86 70 87 100 100 100 98 100 93
98 98 99 98 100 98 86 45 16 15 19 17 15 14 12 11 11 12 11 8 5 4 4 3 3 3 3 4 7 25 39 70 50 76 100 100 90 62 94 84 100 98 100 100 100 100 95
98 97 100 99 88 54 20 14 18 21 19 17 16 13 11 11 12 12 9 6 4 4 4 4 3 3 5 14 23 34 40 62 70 82 100 70 100 100 98 88 100 100 92 100 100 97 100
100 99 86 51 24 13 19 23 24 21 20 17 14 12 12 12 13 10 6 5 5 5 4 4 3 4 11 27 38 46 39 57 99 95 100 100 100 100 100 98 88 100 100 96 98 100 100
95 67 44 16 14 23 29 27 24 22 19 16 13 12 14 14 11 8 6 6 6 5 4 4 4 10 22 21 46 45 45 66 89 90 94 99 100 92 100 100 100 100 68 89 100 100 100
66 35 12 22 30 32 30 28 25 20 17 14 12 16 16 12 10 7 7 8 7 5 4 4 8 22 40 40 41 48 62 66 87 93 91 80 76 93 100 99 61 59 54 90 100 100 100
17 13 25 34 36 35 33 27 22 19 16 13 16 17 14 11 8 8 8 8 8 6 5 4 12 45 73 69 50 62 53 53 60 84 70 73 64 62 69 78 83 78 93 98 100 100 100
14 29 36 39 40 36 29 24 21 19 15 18 19 15 14 11 10 9 8 9 9 6 5 6 20 47 50 52 70 43 37 35 48 63 57 48 42 43 49 51 41 84 100 100 100 100 100
33 43 45 42 38 33 28 24 21 17 16 21 17 15 14 12 11 9 8 10 10 7 6 6 28 39 48 53 63 54 43 43 39 40 36 32 36 32 29 32 36 88 98 92 88 100 100
43 44 44 40 37 31 26 23 20 16 21 21 18 16 15 14 13 9 9 11 11 8 6 7 19 45 50 65 50 63 74 87 89 80 65 68 85 70 83 83 100 100 100 48 76 100 100
47 46 44 41 35 29 25 21 17 21 22 21 22 19 16 16 13 10 11 13 13 10 8 7 14 36 39 43 37 33 52 96 94 90 89 81 79 77 83 99 96 98 99 96 100 78 100
50 48 46 42 34 27 25 18 20 22 22 23 20 18 18 18 15 13 12 14 15 12 9 8 9 14 31 34 30 29 32 48 65 75 79 83 86 95 83 90 75 68 64 93 100 100 100
54 53 48 40 32 27 22 24 25 23 23 23 20 20 20 18 16 15 14 16 17 15 12 10 8 8 15 28 23 24 25 25 36 52 53 58 73 60 63 65 57 74 68 76 100 99 85

GFSGBSN_500_rhum_237.txt.gz
RH
24 32 64 94 96 78 30 22 17 15 13 12 10 9 9 9 10 12 20 27 26 32 56 49 62 59 65 59 57 54 56 58 59 65 62 64 64 68 60 63 64 58 61 68 56 48 47
7 11 23 71 95 96 63 26 19 16 15 18 12 11 10 10 11 14 16 16 15 16 19 25 40 53 55 47 42 56 61 64 61 66 63 61 63 75 65 65 59 52 48 40 32 37 42
45 21 19 34 94 96 94 85 36 18 17 26 13 12 12 13 14 15 16 16 20 31 35 37 34 70 67 56 59 54 52 55 66 66 61 68 66 61 56 46 37 32 28 24 18 31 36
46 41 92 79 80 96 97 92 76 24 25 61 32 16 16 18 18 18 23 29 32 46 63 65 74 67 64 61 57 52 50 55 55 52 45 38 37 32 27 19 16 13 12 10 8 10 10
44 20 23 84 87 94 96 96 66 43 17 38 55 68 61 33 25 30 35 58 81 85 74 85 78 71 60 62 66 51 42 39 36 33 31 24 18 12 8 6 6 5 5 5 5 5 5
53 27 70 97 87 97 97 96 91 57 25 45 50 42 32 38 63 63 92 92 89 90 92 94 76 82 72 62 44 30 24 19 17 14 10 8 6 5 4 5 4 4 4 4 3 3 4
34 21 94 96 97 97 98 97 98 95 85 44 54 44 69 88 96 96 95 97 88 95 100 92 83 80 70 48 33 23 18 15 9 6 5 4 4 4 4 4 4 3 3 3 3 3 3
27 29 75 99 95 96 97 95 97 95 41 54 74 77 85 97 94 94 97 100 100 100 86 83 68 55 45 34 20 12 8 6 5 5 4 4 4 4 4 4 4 3 3 3 3 2 4
55 33 58 86 93 89 95 96 97 93 55 75 88 89 94 95 100 100 100 100 100 100 83 53 35 23 14 10 7 6 5 5 4 4 4 4 4 4 4 3 3 3 2 2 2 2 2
28 27 37 91 98 97 96 97 97 98 92 90 90 94 95 97 94 98 100 98 87 54 34 21 14 10 8 6 5 5 5 4 4 4 4 3 3 2 2 2 2 2 3 3 3 4 2
40 24 91 94 97 97 98 97 97 97 96 95 98 94 98 96 97 100 100 92 56 29 17 12 8 7 6 5 5 5 5 5 4 3 3 2 2 2 2 2 2 2 3 5 10 17 39
32 92 95 97 97 98 96 97 96 95 94 97 95 97 95 99 97 94 84 40 18 14 10 8 7 6 6 6 6 5 4 3 2 2 2 2 2 3 2 3 4 12 36 33 37 74 98
22 22 90 96 98 98 95 95 99 97 98 98 98 98 98 98 97 70 32 15 13 10 8 7 7 7 7 6 4 3 3 2 2 2 2 2 3 20 29 16 51 39 88 77 88 84 36
24 67 96 98 97 98 99 99 99 97 98 99 98 98 99 99 78 33 14 12 10 9 8 8 8 7 5 4 3 3 2 2 2 3 2 4 8 55 45 64 35 97 100 100 99 63 34
89 96 98 98 99 98 98 99 97 96 98 100 97 93 84 62 23 14 12 10 9 8 9 9 6 4 4 3 3 2 2 2 4 9 11 21 64 68 97 48 80 89 100 100 99 72 63
98 98 97 99 98 100 98 98 98 99 98 96 88 83 32 17 14 12 10 9 9 10 8 5 4 4 3 3 2 2 3 6 12 22 54 63 36 80 100 67 80 90 99 93 94 96 100
99 98 98 97 97 97 98 98 99 98 94 75 55 19 18 14 12 11 10 10 11 8 5 4 4 3 3 2 3 3 4 10 23 42 85 55 53 45 62 82 64 80 86 100 98 100 100
98 98 98 98 98 98 98 99 98 89 68 35 17 18 15 13 12 11 11 11 7 5 4 4 3 3 3 2 3 3 6 15 33 46 89 74 61 69 48 100 100 100 100 95 100 98 100
98 98 99 98 98 98 99 95 69 45 20 19 19 17 15 13 11 12 10 6 5 5 4 4 4 3 3 3 3 6 15 40 63 64 88 77 82 100 96 100 100 100 100 100 100 100 100
98 99 99 98 99 98 95 73 43 17 23 22 19 16 14 12 12 11 6 6 5 4 4 4 4 3 3 3 5 13 31 63 86 69 80 83 94 98 100 100 96 85 100 100 100 100 100
99 98 98 98 97 97 73 30 20 26 24 20 17 14 13 14 11 7 6 6 5 4 4 5 4 4 4 3 9 16 40 65 74 68 74 75 75 98 98 98 100 100 100 100 100 100 100
98 99 98 95 75 32 15 22 27 26 22 19 16 13 15 13 7 7 7 6 5 3 5 6 5 4 4 6 10 27 42 65 69 71 64 65 61 56 71 84 100 100 93 100 100 100 100
98 95 85 46 25 17 28 32 29 24 20 17 14 14 15 9 7 8 7 5 4 4 6 7 6 5 5 7 13 20 31 50 59 70 57 51 52 53 52 61 62 96 100 100 100 100 100
96 79 45 16 22 31 34 31 26 22 20 16 14 16 10 7 8 8 6 5 5 5 7 8 7 6 5 8 24 28 33 30 33 40 37 35 35 35 41 52 50 88 100 100 100 100 99
67 24 17 26 34 38 32 27 24 22 19 14 15 13 8 8 8 7 6 5 6 7 8 10 8 7 6 8 25 30 42 54 53 46 39 51 59 40 30 30 44 40 66 100 100 100 100
41 18 29 39 40 34 30 27 25 22 17 17 15 10 8 9 10 8 6 6 8 8 10 11 10 8 7 8 14 19 22 30 50 54 55 61 58 62 73 59 30 57 59 80 97 100 100
22 34 42 41 36 34 30 27 23 20 17 17 12 10 9 10 11 8 7 7 9 9 11 13 12 10 8 8 12 15 18 22 29 42 59 68 62 65 87 87 74 68 69 92 100 98 96
38 44 44 42 38 35 30 27 23 18 19 15 10 10 11 13 15 11 8 9 10 11 12 14 14 13 10 9 9 13 16 18 21 23 28 40 54 50 54 52 48 46 47 59 62 73 82
48 48 45 43 41 36 30 26 20 19 17 12 10 11 12 14 14 12 10 10 12 14 15 17 18 18 14 11 10 9 11 16 18 20 18 18 23 24 30 32 35 35 32 35 43 77 74

GFSGBSN_500_rhum_240.txt.gz
RH
9 9 29 60 74 78 65 96 97 50 31 23 18 14 11 9 8 8 8 8 9 9 11 14 20 22 21 33 28 19 25 24 43 45 52 59 62 64 60 68 69 72 70 70 65 56 54
4 5 5 9 28 49 69 85 96 92 69 27 21 17 14 11 10 10 9 9 11 11 11 16 16 16 17 22 24 37 39 35 39 60 63 67 76 73 59 66 66 64 59 59 67 68 66
5 6 6 9 8 18 60 93 96 94 96 63 25 19 14 12 11 11 11 11 12 14 15 17 16 14 20 22 28 33 44 54 66 53 70 69 72 71 68 62 56 46 32 28 28 29 33
14 10 17 12 6 9 9 34 86 93 96 75 21 18 15 12 13 12 12 12 16 20 26 21 22 31 36 48 65 69 67 68 65 76 72 70 61 51 46 40 36 30 26 18 11 10 9
17 12 19 17 8 14 12 16 33 93 96 90 48 35 13 16 14 14 15 18 24 25 28 37 48 60 69 68 76 87 84 84 78 66 57 47 36 24 18 12 11 7 8 6 6 8 6
39 16 21 13 35 55 31 75 68 73 98 97 97 81 50 39 53 41 46 37 33 37 45 60 72 81 69 81 92 89 78 71 60 46 34 24 16 9 7 6 5 4 4 4 4 6 4
13 13 80 95 62 40 22 23 68 94 98 96 96 65 17 26 57 66 46 41 59 80 93 89 87 74 78 90 88 73 56 43 29 19 11 8 6 5 5 4 4 4 4 4 3 3 3
27 92 86 44 46 30 26 30 76 99 97 98 92 84 55 21 35 40 44 75 95 95 87 82 89 95 91 79 55 33 18 14 10 8 7 6 5 4 4 4 4 3 3 2 2 2 2
23 99 36 12 29 34 27 64 100 98 97 96 97 86 79 52 40 60 71 96 97 95 93 77 81 71 51 24 13 10 9 8 6 6 5 5 4 4 3 3 2 2 2 2 2 2 2
28 30 14 8 36 30 36 89 98 96 97 96 98 99 96 44 54 78 95 98 98 97 86 62 46 28 18 11 9 8 8 6 5 5 4 4 3 3 3 2 2 2 2 2 2 2 3
28 20 16 19 27 34 40 62 97 98 95 97 98 97 93 88 92 95 97 99 98 95 59 42 30 16 11 9 7 6 6 5 4 4 3 3 2 2 2 2 2 2 3 6 13 18 31
18 24 19 21 46 44 29 92 86 98 96 98 98 96 95 97 98 98 99 97 86 38 26 21 13 9 8 7 6 6 5 4 4 3 2 2 2 2 2 2 5 9 18 68 65 76 60
16 21 42 31 35 35 56 99 96 97 98 97 98 96 95 97 98 99 98 80 33 23 16 12 9 8 8 7 6 4 4 3 2 2 2 2 2 3 8 13 25 35 90 71 49 89 100
17 57 45 61 37 41 66 99 98 96 96 98 99 98 95 98 99 97 79 22 18 14 10 9 9 8 6 5 4 3 2 2 2 2 2 2 9 23 54 36 38 94 99 100 87 82 80
13 13 22 39 47 68 82 98 96 96 99 99 98 96 98 98 94 36 19 17 13 10 10 10 7 5 4 3 2 2 2 2 2 2 2 4 31 55 83 78 81 92 100 87 98 79 81
14 19 24 34 43 52 98 99 97 99 99 98 99 98 99 82 23 19 17 12 11 11 9 6 5 4 3 2 2 2 2 2 3 6 10 37 35 50 56 81 96 78 73 70 100 93 98
33 39 37 32 61 96 98 97 98 99 100 99 98 98 66 22 20 16 12 11 11 8 5 5 3 2 2 2 2 2 2 4 11 37 29 52 48 75 52 100 100 83 98 97 90 100 100
74 65 35 72 96 98 89 99 98 99 99 98 95 66 24 20 16 13 12 12 8 5 4 3 3 2 2 3 3 3 2 6 22 63 58 67 63 66 62 100 95 99 100 100 100 100 100
57 78 97 98 98 99 96 98 98 100 98 91 36 24 21 16 13 12 12 7 5 4 3 3 2 2 3 3 3 3 4 10 35 73 69 63 100 97 100 100 100 99 90 100 100 100 100
99 99 98 98 99 97 98 99 99 99 66 25 23 21 18 14 12 12 8 6 4 3 3 3 3 3 4 3 3 3 6 15 38 62 64 59 80 100 100 100 96 97 96 100 100 100 100
99 99 98 98 98 97 99 99 94 36 24 25 22 18 14 13 12 9 6 4 4 3 3 4 4 4 5 4 4 4 7 13 31 43 50 56 60 57 70 97 98 98 100 100 100 100 100
98 98 98 98 98 99 99 70 23 24 27 23 19 15 14 13 10 6 4 4 4 4 4 4 4 5 6 5 4 4 9 15 18 27 37 42 46 51 56 46 89 100 100 100 100 100 99
98 98 99 98 99 98 83 38 26 29 25 20 17 15 13 12 7 6 4 5 5 5 5 6 6 7 7 7 5 5 9 12 18 26 24 31 35 38 37 45 40 92 96 99 100 100 100
98 97 97 99 97 87 31 27 30 27 22 18 16 14 14 8 8 5 5 6 6 6 7 8 8 9 10 10 7 6 7 14 20 20 24 24 24 29 29 32 42 57 74 99 100 100 100
98 99 99 94 59 27 29 32 28 24 21 18 15 14 10 8 6 5 6 7 7 9 9 10 10 11 12 12 10 7 7 11 20 27 26 29 34 36 36 64 48 31 39 46 74 96 99
100 98 87 40 29 32 34 30 26 22 20 18 14 13 9 9 6 6 7 8 9 10 11 12 12 14 14 15 12 9 8 9 14 26 30 28 29 37 50 71 81 55 42 45 44 90 95
98 52 24 29 36 36 32 28 24 21 20 16 17 10 9 9 6 7 8 9 10 11 13 14 15 16 17 18 16 13 10 9 10 15 17 21 34 38 43 49 76 57 45 42 47 67 61
61 48 41 40 38 33 30 27 23 21 19 19 14 9 9 9 7 8 9 10 12 14 15 17 18 19 20 21 20 18 14 10 8 9 10 14 15 17 19 24 30 34 32 35 34 32 34
36 37 41 39 37 33 30 26 24 22 19 19 12 9 9 10 8 8 9 11 13 15 18 21 22 23 24 24 25 24 20 16 12 10 9 10 9 11 16 12 13 18 24 24 23 21 21

GFSGBSN_500_rhum_243.txt.gz
RH
4 4 26 33 52 75 90 96 97 96 96 96 95 34 25 18 16 13 9 8 7 7 7 7 8 8 8 9 12 24 33 29 34 28 20 22 28 31 33 43 57 58 67 69 65 65 67
4 4 4 8 14 26 71 73 94 95 91 96 97 91 68 25 19 16 12 10 9 8 8 9 9 9 9 12 25 24 25 22 22 24 24 28 33 52 48 58 65 66 61 59 61 58 54
5 4 4 4 4 8 26 60 50 65 62 90 96 96 98 58 28 18 14 12 10 10 10 10 10 10 11 12 16 17 18 20 25 36 50 64 75 86 84 77 68 61 49 42 37 28 26
7 6 5 5 5 5 5 5 6 16 31 57 88 97 96 82 25 17 14 13 11 11 11 12 13 14 14 18 20 23 26 35 53 65 79 83 79 70 60 45 44 36 29 21 13 11 9
12 8 5 5 33 5 5 6 7 8 9 11 45 95 96 97 81 21 14 13 12 12 14 17 21 22 23 22 21 26 42 61 66 75 84 65 41 27 18 19 19 11 12 8 7 6 6
16 12 8 6 5 5 7 8 10 8 9 10 13 36 85 96 85 57 19 13 14 16 21 25 25 29 29 32 47 70 69 74 79 74 47 30 14 10 10 8 8 7 6 6 6 5 4
18 16 12 7 18 40 12 40 60 18 21 17 33 35 84 96 88 34 15 17 36 41 37 42 49 49 79 85 76 73 75 68 46 25 15 10 10 8 7 6 5 5 4 4 4 3 2
24 17 14 16 46 50 70 26 19 38 48 49 82 77 88 95 95 95 74 34 75 65 64 66 59 75 90 89 82 73 52 23 14 11 10 9 7 7 6 5 4 3 3 3 2 2 2
31 18 14 91 16 24 28 24 21 66 37 28 38 90 96 97 98 96 52 58 54 46 55 59 76 91 78 76 40 26 16 11 10 9 7 6 5 4 4 3 2 2 2 1 1 1 1
28 18 16 16 22 18 38 72 65 53 31 36 40 84 99 97 96 99 98 94 48 62 66 84 84 85 68 32 22 14 11 9 8 6 5 4 3 3 2 1 1 1 2 1 2 2 2
24 16 14 13 19 60 95 53 38 44 50 48 69 100 98 98 99 99 97 97 97 74 83 75 66 40 27 15 11 10 8 7 5 4 3 2 2 1 1 1 1 1 2 2 4 9 26
21 18 18 24 51 100 70 19 20 40 34 67 98 95 97 97 99 99 98 92 90 97 96 74 47 20 11 10 9 7 6 4 3 2 2 1 1 1 1 2 2 3 6 13 44 46 54
25 28 23 23 28 98 25 12 30 38 33 46 89 98 97 98 97 97 97 99 99 94 83 53 15 10 10 8 6 4 3 2 2 1 1 2 2 2 3 4 15 16 88 55 53 83 93
28 27 29 24 33 85 15 16 26 46 37 76 99 99 98 97 99 98 99 98 94 97 35 12 11 10 6 5 3 2 2 2 2 2 2 2 6 8 24 33 46 79 90 99 55 58 64
30 27 24 28 30 20 18 22 42 49 83 98 98 96 95 97 99 99 98 100 83 17 11 11 8 6 4 2 2 2 2 2 2 2 2 2 6 23 54 74 83 99 87 70 56 76 88
35 31 26 22 20 20 26 27 38 53 98 97 98 97 96 100 100 98 96 35 13 12 12 6 5 3 2 2 2 2 2 2 2 2 2 9 26 42 64 100 88 85 72 69 98 81 100
34 31 26 19 18 31 32 57 68 100 98 98 99 99 99 99 98 97 23 14 12 11 6 4 3 3 2 2 2 2 2 2 2 3 14 41 53 71 100 92 94 94 92 99 92 100 100
26 26 22 20 44 74 88 89 90 98 98 98 98 97 98 100 100 61 14 13 11 6 4 3 3 3 3 2 2 3 3 3 4 16 24 64 74 73 100 100 97 79 92 78 97 100 100
17 28 27 25 74 75 70 94 72 93 99 100 91 98 100 98 60 14 13 10 6 4 3 3 3 3 3 3 3 4 3 4 7 13 34 62 100 84 99 100 100 91 100 94 100 100 99
17 26 30 51 78 97 86 77 96 99 98 96 92 98 94 23 14 14 11 6 4 4 3 3 3 3 3 4 4 4 4 4 6 15 37 44 76 84 87 97 97 100 100 100 100 100 100
80 94 34 100 82 68 73 98 99 98 99 92 98 76 22 15 14 12 7 4 4 4 4 4 4 4 4 5 6 5 4 4 6 10 33 38 41 43 47 75 100 100 100 100 100 99 100
100 54 34 78 97 100 99 98 99 100 98 99 44 20 15 14 14 8 5 4 4 4 4 5 5 5 6 8 8 7 6 5 5 10 18 23 26 28 64 74 82 89 99 100 100 100 100
49 81 96 100 99 100 99 99 99 100 96 41 19 15 15 15 8 6 4 4 5 6 6 6 6 7 8 10 10 10 8 6 5 8 13 15 33 61 62 39 49 85 73 92 91 100 100
94 100 100 99 98 99 100 100 99 91 39 21 16 15 15 12 8 5 5 6 7 6 6 7 8 9 11 12 13 12 10 8 6 6 13 19 22 75 82 90 95 98 61 57 67 83 84
100 100 98 98 99 100 99 98 80 32 22 18 15 16 14 8 7 5 6 6 8 8 8 9 10 12 13 15 15 16 14 11 8 7 6 9 14 40 75 99 87 99 59 42 40 40 46
99 99 99 99 99 99 97 63 31 24 19 16 15 16 11 8 5 6 7 8 9 9 9 12 12 13 16 18 18 18 18 15 10 8 8 6 8 16 39 80 66 54 38 58 26 94 91
99 98 99 98 99 96 66 36 27 22 19 17 16 16 9 9 6 6 8 9 10 9 12 14 14 16 16 20 22 22 22 20 17 13 9 8 6 7 12 34 94 56 48 41 61 67 35
99 97 98 97 84 60 43 29 24 21 19 17 16 13 9 8 6 7 8 10 10 12 15 16 17 17 19 22 24 26 26 25 24 21 16 12 10 8 8 9 13 18 23 26 26 24 22
99 98 96 93 80 35 30 26 24 21 19 16 17 10 9 9 7 8 9 10 13 14 16 18 18 20 21 23 25 28 29 30 30 29 25 20 16 13 11 11 8 6 6 6 6 6 6

GFSGBSN_500_rhum_246.txt.gz
RH
4 4 69 42 45 49 54 66 78 67 93 96 91 85 94 90 93 72 18 15 12 10 8 7 5 5 5 5 4 6 6 8 9 10 16 23 24 22 14 16 22 36 48 49 53 62 67
7 4 4 3 12 44 53 39 46 62 84 83 96 94 93 95 94 82 28 20 17 14 11 9 8 7 7 6 7 7 8 10 16 25 25 19 16 16 21 34 49 60 64 64 66 67 54
11 8 5 4 4 5 22 50 98 57 82 61 93 96 97 94 96 97 90 45 22 18 14 12 10 9 8 8 9 10 13 14 16 15 14 17 20 22 46 55 66 63 58 54 39 26 22
17 12 9 6 4 4 4 5 30 60 94 91 92 88 91 93 93 95 96 95 51 28 18 15 12 11 10 10 10 12 12 15 15 17 18 21 31 51 63 65 64 46 32 34 16 13 9
30 22 13 9 6 5 4 4 4 5 9 10 18 33 38 74 67 95 93 96 73 46 28 20 15 12 11 12 13 14 14 24 27 29 34 56 76 72 52 41 33 15 22 11 9 7 7
38 34 22 19 9 6 5 4 4 5 6 6 6 7 8 14 11 25 66 95 95 94 27 13 12 14 15 17 19 20 25 44 66 63 70 69 66 30 14 12 11 9 8 7 6 6 5
35 40 31 22 12 11 6 5 5 36 12 7 6 6 7 9 10 10 14 49 92 75 40 18 14 16 19 26 31 39 46 71 76 71 65 39 18 10 9 7 6 6 5 6 5 4 4
27 38 36 28 17 16 8 6 6 7 7 7 15 38 16 24 28 49 41 69 96 80 76 52 39 46 48 45 52 60 56 75 74 32 16 12 8 7 6 4 4 3 3 3 3 2 2
13 31 40 34 22 16 12 9 6 8 12 16 76 42 32 49 59 68 80 100 96 92 71 57 58 55 66 61 79 85 80 72 38 18 11 8 5 4 3 2 2 1 1 1 1 1 1
12 14 36 38 29 19 15 11 9 74 53 51 66 54 99 52 40 56 71 96 96 90 83 76 72 64 54 63 72 68 54 36 14 8 5 5 3 2 1 1 1 1 2 1 1 1 2
8 9 26 39 34 24 16 13 61 100 99 97 64 22 48 30 43 62 81 93 93 98 90 72 74 95 93 56 36 40 20 10 7 3 3 2 1 1 1 1 1 1 2 2 2 8 21
9 7 24 44 38 25 18 64 85 78 75 26 52 53 37 41 63 91 96 93 99 97 92 80 91 98 77 56 14 9 6 5 2 2 2 1 1 1 1 2 2 2 3 17 42 88 92
10 9 24 47 39 21 53 66 40 40 32 64 39 59 48 46 90 99 98 97 99 98 97 91 96 92 26 11 9 4 2 2 2 2 1 1 2 2 2 3 8 12 42 52 77 90 100
10 8 33 46 33 19 62 67 75 53 79 40 31 38 37 43 96 96 97 94 98 94 100 99 89 21 10 6 4 2 2 2 2 2 2 2 3 4 8 8 14 50 84 81 63 56 78
9 14 40 38 31 19 16 52 54 91 72 26 29 44 45 88 95 98 99 100 93 98 98 91 16 10 5 3 2 3 2 2 2 2 2 2 3 9 29 47 49 57 96 74 45 94 100
12 22 42 32 25 18 21 40 76 92 19 21 52 82 99 94 98 99 98 96 98 95 80 31 8 5 3 3 3 2 2 2 2 2 2 3 10 30 47 80 95 82 71 66 68 89 100
10 34 44 32 24 24 30 92 97 73 18 42 65 67 98 98 99 96 98 95 94 71 15 7 5 3 4 3 3 3 2 2 3 3 3 15 32 52 88 85 82 67 68 64 91 100 100
14 39 45 31 27 34 38 29 60 48 30 42 49 72 94 97 94 96 99 98 62 13 7 4 3 4 3 3 3 3 3 3 3 4 13 56 62 59 100 72 88 69 70 79 99 100 100
19 37 45 30 27 25 32 37 66 36 35 55 99 94 98 99 98 100 99 62 12 8 4 4 4 4 4 4 4 4 4 4 4 5 12 44 88 82 100 93 99 85 81 81 100 100 89
26 39 36 29 26 25 30 22 27 36 59 86 99 94 93 98 99 100 86 16 8 5 4 5 5 4 4 4 4 4 5 6 5 4 12 50 61 67 75 92 86 88 100 100 100 100 100
32 32 35 35 30 74 85 19 43 77 94 100 97 88 98 98 100 90 23 8 4 5 5 5 5 5 5 5 6 6 7 8 6 5 5 26 51 48 42 89 91 83 100 100 100 100 100
40 38 40 35 33 33 100 84 81 62 100 100 98 98 98 97 68 14 10 5 5 5 6 6 6 6 6 6 7 8 10 10 9 6 4 5 12 33 28 88 68 76 76 82 93 97 98
40 44 39 41 38 52 73 86 58 87 98 97 98 97 93 32 15 11 6 5 6 6 6 6 7 7 7 8 9 10 11 12 12 9 7 4 8 43 76 100 54 70 83 70 43 67 69
40 42 45 38 84 80 72 97 100 97 98 98 98 92 51 16 13 7 5 6 6 7 7 8 8 8 9 9 10 12 13 14 15 13 9 6 5 14 86 88 100 100 95 79 48 35 29
27 36 38 33 90 84 100 90 100 97 96 98 95 39 16 14 9 6 6 6 7 8 8 10 9 9 10 10 12 13 15 15 17 17 14 10 7 9 40 89 100 82 81 58 38 46 48
29 39 38 50 67 100 100 99 99 99 98 92 48 18 16 11 7 7 7 7 9 9 11 11 10 10 12 13 11 14 19 20 20 20 20 16 11 8 7 55 86 61 50 42 49 100 94
91 86 58 71 100 99 99 99 98 99 94 56 23 16 13 9 6 7 8 9 8 12 12 11 11 12 13 14 15 16 20 21 23 24 26 23 21 15 11 8 14 46 27 26 48 83 64
100 100 100 99 99 100 99 97 99 93 57 21 16 16 10 8 6 7 7 8 10 13 13 13 13 13 14 16 18 20 21 24 26 26 29 29 28 26 21 17 14 12 10 9 8 7 7
100 100 99 100 100 97 98 97 90 50 20 16 18 14 9 9 6 6 8 10 12 14 15 15 14 15 17 20 21 23 24 24 26 28 31 33 34 34 33 27 25 22 20 19 18 17 17